ECMWFFLT2_sfc_temp_057.txt.gz
Temp
83 82 82 82 81 80 78 75 76 75 75 75 75 75 75 75 75 76 76 76 75 78 78 78 77 78 76 78 75 75 75 75 75 75 74 74 74 74 74 74 74 74 74 75 74 73 73 73 73 73 74 74 74 79 85 86 87 86 85 83 81 80
83 83 82 81 81 81 79 78 80 79 78 77 76 76 77 79 78 79 76 77 79 77 75 76 76 77 77 77 77 75 75 75 75 74 74 74 74 74 74 74 74 74 73 74 73 79 76 74 73 73 74 73 77 85 86 86 86 86 85 82 80 76
82 81 80 82 81 81 80 81 80 80 79 77 79 79 80 81 81 79 80 78 73 74 75 74 74 77 76 75 76 75 74 75 74 74 74 74 74 73 73 74 73 74 74 73 77 83 82 81 79 74 74 77 83 85 86 87 87 86 84 81 79 74
80 79 82 82 82 82 81 82 82 81 80 80 80 79 80 80 81 78 75 72 71 72 72 73 76 76 76 77 76 74 74 74 74 74 73 75 73 74 73 73 74 73 74 78 82 82 84 82 81 79 80 82 84 84 85 86 87 86 83 82 81 74
81 81 82 82 81 82 82 83 82 81 81 81 81 77 81 79 77 75 71 70 71 71 71 73 76 77 77 76 76 78 77 78 78 78 74 79 79 79 77 80 80 78 82 84 86 81 81 80 79 80 81 83 83 85 86 86 86 85 82 80 77 73
80 83 81 82 82 82 81 82 80 80 81 81 80 79 78 76 75 73 71 70 70 71 71 76 78 79 81 80 80 81 81 81 81 80 77 81 79 78 80 82 80 80 82 83 83 83 81 79 80 78 79 81 83 84 86 86 85 83 81 79 76 73
81 81 81 82 82 82 83 83 83 83 81 80 79 77 76 74 73 73 72 70 71 70 75 80 81 82 82 83 83 83 84 83 82 83 82 82 81 82 83 83 82 81 84 84 85 85 84 81 79 80 79 81 83 86 86 86 84 82 81 79 75 73
81 80 80 81 81 82 82 80 80 80 79 78 78 76 75 73 73 72 71 71 71 73 80 82 81 82 83 83 83 83 83 83 84 84 84 85 83 84 84 84 83 83 84 84 85 84 83 84 81 76 81 86 85 85 85 85 84 82 81 79 77 74
81 81 79 79 80 82 80 79 79 78 78 78 77 76 73 72 71 70 71 74 73 77 79 82 82 82 83 81 81 80 81 82 83 83 83 84 83 81 81 81 81 81 81 83 84 82 83 84 80 74 75 80 86 85 83 83 83 82 80 79 78 75
73 80 78 78 82 77 75 74 77 78 77 76 75 72 71 70 70 71 72 75 75 77 82 81 82 83 82 80 80 80 80 81 81 83 82 81 83 82 81 82 81 81 82 81 82 82 81 82 81 75 71 82 84 84 82 82 81 77 79 78 77 76
76 73 84 82 75 75 75 73 77 78 77 76 74 71 72 72 72 71 74 78 77 80 82 83 82 83 83 82 81 80 81 82 82 82 83 82 82 82 82 82 81 81 79 81 82 84 84 80 80 78 75 72 72 73 82 82 83 77 78 78 77 77
76 73 76 76 78 77 76 76 78 77 77 76 72 73 73 73 72 72 76 78 78 78 83 82 82 82 82 82 82 81 81 80 81 82 83 82 82 81 82 82 81 81 77 77 77 81 86 80 75 73 74 71 71 70 76 82 84 76 77 77 79 77
76 74 75 75 79 80 76 76 76 78 78 76 74 74 70 70 75 77 80 81 80 82 81 81 80 81 82 83 81 79 80 80 80 81 82 81 81 81 82 81 79 81 81 81 84 84 87 79 72 71 74 72 72 70 70 74 79 78 72 76 77 76
72 73 73 76 78 80 79 79 78 78 78 78 77 74 72 73 72 76 80 81 81 82 82 82 82 81 82 82 80 80 80 80 81 81 80 80 81 79 81 81 81 81 82 82 82 82 83 81 68 71 73 75 75 74 74 74 76 80 71 75 75 70
71 72 75 74 78 78 80 80 81 76 77 79 78 78 79 79 81 82 82 82 81 81 82 82 82 80 81 82 81 80 80 81 81 80 81 80 80 80 82 81 82 81 81 81 80 82 80 76 72 72 73 75 75 76 75 76 76 76 69 73 73 69
71 72 74 76 75 77 78 78 81 80 78 79 81 80 81 82 83 84 83 82 82 82 82 82 82 81 79 82 82 81 80 81 80 80 81 80 79 81 81 80 80 76 74 74 72 72 76 74 76 72 72 72 73 75 75 77 78 79 70 72 71 70
74 77 75 73 76 76 77 77 79 79 80 78 80 80 81 82 83 83 83 83 82 81 82 82 82 81 80 81 83 80 74 80 80 80 79 79 81 73 78 79 79 78 77 75 78 78 77 77 75 74 69 70 72 74 75 73 76 74 71 70 69 68
77 77 77 77 76 75 75 75 75 78 78 79 79 80 79 81 83 83 82 80 81 81 81 82 81 81 80 82 82 81 82 78 80 79 78 79 80 77 79 79 77 79 80 78 78 78 79 77 75 73 66 69 71 70 68 69 68 72 68 68 67 68
77 77 75 76 75 76 74 73 73 78 77 77 78 76 75 77 82 82 78 81 81 81 81 81 81 81 80 78 79 80 80 80 80 78 78 79 79 79 78 78 78 77 79 80 79 77 78 77 71 71 67 67 68 68 67 67 70 71 67 68 69 71
75 76 74 74 75 71 72 71 72 76 77 75 76 78 78 82 81 80 76 79 81 80 82 81 81 82 79 80 80 78 79 79 80 79 78 78 78 78 76 76 76 77 77 78 80 75 75 72 67 66 65 68 68 68 67 70 70 70 68 71 71 70
74 77 73 73 71 71 69 68 73 75 72 74 75 75 77 80 79 82 83 84 80 80 82 80 81 80 79 79 80 79 77 79 80 80 78 78 78 78 77 77 77 77 76 75 76 76 73 73 67 67 69 69 68 68 72 70 69 71 67 70 73 69
73 73 72 72 74 71 72 71 71 72 71 75 75 75 76 78 76 75 73 78 80 81 81 80 78 81 78 81 78 77 77 77 79 79 78 79 78 76 77 77 77 76 77 76 74 72 71 74 67 68 67 67 68 69 69 69 70 72 70 68 67 68
72 71 70 69 70 70 69 71 75 75 75 74 77 77 79 76 73 69 71 77 78 80 80 80 81 80 80 80 78 75 75 76 78 78 75 76 76 76 76 76 76 76 75 73 73 72 72 74 70 72 71 68 65 65 67 69 69 69 68 68 67 68
71 71 70 71 69 70 70 69 69 70 69 72 72 73 72 73 70 69 70 74 75 77 78 80 83 83 79 78 77 74 75 75 75 78 77 76 76 76 76 76 76 76 75 71 73 71 74 72 70 69 65 67 67 66 62 65 67 68 68 69 71 70
70 71 71 71 69 70 66 67 67 68 67 67 70 69 69 68 67 68 67 68 71 77 80 81 81 82 82 79 76 76 75 76 76 76 77 74 74 76 77 77 77 76 75 74 72 68 69 68 70 70 69 67 65 63 64 65 67 66 69 66 69 70
73 71 70 69 68 68 66 67 67 65 63 65 65 67 65 66 66 65 66 71 75 81 82 81 82 82 82 79 76 79 78 75 75 76 75 74 76 77 77 78 78 76 75 75 73 67 67 68 69 71 72 72 67 63 62 67 68 60 67 69 67 71
71 66 69 66 67 67 67 67 68 67 67 67 68 69 70 71 67 68 67 71 74 80 82 80 80 81 80 80 79 79 78 77 78 75 76 75 75 74 77 80 79 77 77 76 75 72 69 69 68 70 73 73 74 75 72 68 63 65 60 65 68 68
67 65 65 67 66 67 67 67 68 68 67 65 67 67 69 68 68 68 71 71 79 77 80 80 79 79 81 80 79 78 79 78 79 79 78 78 76 75 78 79 78 77 78 76 75 73 72 70 69 70 74 73 74 73 73 71 70 67 66 63 63 68
65 65 66 68 66 67 68 68 68 68 66 68 69 69 67 66 66 68 66 73 75 75 76 80 81 81 81 81 80 79 79 78 78 78 79 79 78 79 78 75 76 73 74 74 75 73 72 68 70 66 70 73 73 71 72 71 71 69 64 66 65 65
64 66 68 69 68 66 66 67 67 67 67 66 68 67 66 66 66 67 68 71 71 73 78 77 80 81 80 81 80 80 80 79 78 79 79 80 79 78 77 77 76 75 73 73 73 72 71 73 72 69 71 73 72 70 69 68 67 69 69 67 65 66
65 66 68 68 66 65 66 67 67 66 66 66 66 67 66 67 67 66 66 68 74 76 77 79 78 79 79 80 79 80 79 79 79 79 79 80 78 78 78 77 76 76 72 72 72 72 73 73 74 71 73 74 71 68 67 65 69 68 68 67 66 66
64 64 65 66 66 66 68 68 68 68 67 67 68 67 67 66 66 66 67 65 73 76 77 77 77 77 77 79 78 78 79 79 78 78 78 79 79 79 78 78 76 74 75 74 72 70 72 72 73 74 73 74 73 72 70 69 68 68 69 67 69 68
64 64 64 65 64 66 68 68 68 68 68 69 69 69 69 64 65 66 67 67 72 74 77 76 76 76 77 77 78 77 77 78 78 78 78 79 75 79 78 78 77 76 75 74 72 71 71 73 73 73 74 74 75 74 71 71 68 69 71 73 72 69
64 64 64 65 65 66 68 68 68 68 68 69 70 71 70 66 65 66 66 72 76 77 77 77 77 77 77 78 78 78 78 78 79 78 78 78 78 77 78 78 77 76 75 75 74 72 73 74 73 73 74 72 74 75 74 73 69 69 71 71 70 70
65 65 65 65 67 66 67 68 68 67 68 69 70 72 71 68 65 66 73 76 77 78 78 78 78 77 78 78 78 79 79 79 78 78 78 77 78 78 77 77 78 75 73 75 75 74 73 73 72 73 72 70 73 73 73 75 69 71 74 73 72 72
68 68 67 67 67 67 67 68 68 68 68 68 71 73 72 71 70 73 76 77 78 78 79 79 78 78 78 79 78 78 78 78 78 78 78 78 78 78 77 76 76 75 74 77 74 73 75 74 73 73 72 73 74 71 74 73 72 71 75 74 72 71
69 68 68 68 68 68 68 67 67 68 67 67 69 71 71 72 74 76 77 77 78 78 78 78 78 78 78 79 78 78 78 78 77 78 78 78 78 78 77 77 76 73 73 77 76 76 76 74 73 73 75 75 75 75 75 73 68 68 72 74 74 74

ECMWFFLT2_sfc_temp_060.txt.gz
Temp
79 78 78 78 77 76 76 75 75 75 75 75 75 75 75 75 75 75 75 75 74 75 75 75 75 76 75 75 75 75 75 75 75 75 75 74 74 74 74 74 75 75 75 75 74 73 73 73 74 73 74 74 74 73 77 79 79 77 76 75 74 74
78 78 78 77 77 77 76 76 76 75 75 75 75 75 75 76 77 75 75 74 74 75 74 75 75 76 75 75 75 75 75 75 75 74 74 74 74 74 74 74 74 75 75 74 73 73 73 74 73 74 74 74 73 73 78 79 78 77 76 74 73 73
78 78 78 78 78 77 76 76 76 76 76 75 76 76 76 77 76 76 76 76 74 74 74 74 74 75 76 75 75 75 75 75 74 74 74 74 74 74 74 74 74 74 74 73 73 74 74 74 73 75 74 74 73 75 80 79 78 76 75 74 73 75
79 79 79 78 78 77 76 77 77 77 76 76 76 77 77 77 77 76 75 74 73 74 74 73 76 76 75 74 74 75 75 75 75 74 74 74 74 74 74 74 74 74 73 74 74 76 78 76 75 74 74 75 76 78 79 79 78 76 74 75 75 74
80 79 78 78 77 77 77 77 78 78 77 77 77 77 76 75 75 74 74 72 72 72 72 73 73 72 72 74 73 73 74 74 74 74 73 74 73 76 73 75 74 73 73 75 77 77 77 76 75 75 76 76 77 78 79 78 78 76 74 72 72 74
75 71 73 76 77 78 77 77 77 77 77 77 77 76 75 74 74 73 72 71 71 70 70 73 72 72 73 73 73 73 73 74 74 74 74 74 74 73 73 76 77 75 75 76 77 77 77 75 76 76 75 75 77 77 77 78 77 75 73 71 72 74
70 70 73 73 76 78 78 78 78 77 77 76 76 75 74 74 74 72 71 71 70 69 70 72 73 72 73 73 73 74 75 75 75 75 74 75 75 74 74 74 74 74 75 77 79 79 78 76 76 77 74 76 74 70 66 73 75 74 73 72 72 74
71 72 71 70 69 69 70 71 74 74 76 77 76 74 74 74 73 72 72 71 71 70 69 71 73 73 74 74 74 76 76 76 76 77 75 76 76 75 75 76 75 75 77 78 78 79 78 77 75 73 72 70 70 68 68 71 76 75 73 72 72 73
72 72 70 70 70 70 69 70 70 71 74 76 75 75 74 74 73 73 72 72 71 68 69 70 73 75 76 75 75 75 75 75 76 77 77 76 76 76 76 76 75 76 77 78 78 77 78 78 73 71 72 69 69 69 69 67 73 76 74 72 72 72
71 71 70 70 69 69 70 69 69 71 73 76 75 74 74 73 72 72 71 71 70 69 69 68 71 73 75 74 75 75 75 76 76 77 77 75 77 77 75 75 76 77 78 76 77 77 76 77 75 74 70 69 69 68 68 68 72 75 75 73 71 71
73 72 71 70 71 71 71 70 71 74 74 75 74 73 73 72 72 71 71 71 70 71 69 69 71 73 75 75 75 75 75 76 77 76 77 76 77 76 75 75 75 74 76 76 76 77 77 77 75 74 71 70 68 69 68 68 73 75 72 72 72 71
74 72 71 71 72 72 73 74 73 74 75 74 73 73 73 73 72 72 72 71 71 69 69 69 68 72 76 75 76 75 75 75 75 77 77 76 76 76 74 76 76 75 73 72 73 75 75 74 72 73 73 71 69 68 68 70 70 67 66 67 70 71
73 72 72 72 74 75 75 75 74 75 74 74 74 74 73 73 73 72 71 71 70 70 69 68 69 67 77 78 77 75 75 75 76 76 75 76 77 75 74 74 74 74 74 73 73 70 74 71 72 71 71 70 70 70 67 68 68 66 66 67 66 67
74 73 73 74 74 73 75 76 75 74 74 74 74 74 73 73 72 71 71 71 70 70 69 69 69 69 76 74 75 74 74 74 75 76 74 74 74 74 74 75 74 74 75 72 65 67 67 68 69 70 70 71 70 71 67 67 67 65 66 66 66 66
74 74 74 74 73 73 73 74 75 75 74 74 74 73 73 73 73 71 71 70 70 69 70 70 69 72 74 72 74 73 74 74 74 75 74 74 73 74 73 73 72 74 72 69 68 66 67 68 69 70 69 70 71 69 66 66 67 67 66 66 66 66
75 74 73 73 73 73 72 71 73 73 73 75 73 73 71 72 73 71 71 69 70 69 69 70 72 72 72 73 74 72 72 71 74 75 74 75 74 72 72 71 72 72 70 67 65 65 68 67 67 69 69 70 66 66 66 66 67 67 67 67 67 68
74 73 73 73 74 73 71 71 70 68 69 71 72 72 71 70 72 71 70 71 71 70 69 71 75 74 71 72 72 72 72 71 74 75 72 74 73 72 72 73 71 72 72 69 67 66 65 66 65 68 69 68 67 66 66 65 66 66 67 67 67 67
74 74 73 72 70 70 71 71 69 68 69 69 71 72 72 71 71 71 72 72 71 70 72 75 74 74 72 72 72 72 72 72 75 73 73 73 71 71 72 73 72 73 71 71 67 67 66 66 67 67 67 68 67 66 65 65 66 66 67 66 66 66
72 73 71 69 69 70 70 68 69 69 69 69 72 72 72 73 71 68 71 72 74 73 75 74 75 75 73 72 71 71 72 74 75 73 72 73 72 72 72 71 72 72 73 71 67 67 66 67 67 68 66 66 66 65 65 65 65 66 66 66 66 66
70 69 68 68 70 67 67 67 65 66 68 69 71 69 69 70 71 70 72 74 74 75 73 71 75 74 73 73 72 72 72 74 74 73 71 71 71 71 71 72 72 72 72 70 69 67 68 67 66 65 65 66 66 66 66 66 65 66 65 66 65 65
67 67 69 67 69 68 65 65 66 66 67 68 68 72 72 72 72 71 73 70 73 71 71 70 71 74 73 74 73 73 73 74 74 73 72 72 73 73 73 73 72 71 71 69 67 69 68 68 65 63 65 65 65 66 66 67 65 65 65 64 66 66
66 66 67 68 69 69 68 68 66 67 68 70 69 70 68 71 70 72 71 70 70 70 69 68 69 72 73 74 72 72 73 73 73 73 72 72 74 73 73 72 72 70 72 69 66 69 69 69 65 64 62 61 62 63 64 64 64 65 65 65 65 65
66 67 68 68 67 65 69 69 69 68 70 70 71 71 72 70 72 71 70 71 71 69 69 69 70 73 74 74 73 72 72 71 73 72 70 70 71 72 72 72 72 70 68 68 68 69 69 70 65 66 65 63 59 59 61 61 63 65 65 64 65 64
66 66 65 66 67 68 69 69 69 68 69 71 70 71 72 72 72 72 69 71 70 69 70 70 73 76 76 75 73 72 73 72 71 72 71 69 70 71 71 71 71 70 70 66 66 66 69 68 67 65 60 61 61 61 55 58 60 62 65 65 65 63
66 66 67 67 67 67 67 67 68 69 70 69 69 69 70 69 70 70 69 68 69 70 70 72 74 76 76 73 74 73 73 73 72 72 73 71 71 72 72 71 71 71 70 67 65 65 67 69 68 67 64 60 59 58 57 59 61 60 63 63 64 64
65 65 65 67 66 66 66 66 66 65 65 66 66 66 66 67 67 67 68 69 69 70 71 72 74 74 76 75 74 74 73 73 72 72 72 72 73 73 73 72 72 72 68 68 67 65 65 66 68 68 68 65 64 60 59 61 62 55 61 63 63 64
64 65 66 66 65 65 65 66 65 65 66 67 67 67 69 70 69 69 69 68 68 69 70 70 71 72 72 75 74 74 73 73 73 72 72 72 71 72 74 75 73 72 71 69 68 65 64 65 67 68 69 68 67 66 67 64 59 59 56 59 62 62
65 65 65 66 65 65 65 65 65 65 66 68 69 68 69 69 70 70 68 68 67 67 68 67 67 68 69 72 74 74 74 73 73 74 73 72 72 73 73 74 72 73 70 70 70 67 65 65 65 65 68 67 66 67 68 67 67 64 60 56 57 62
64 64 65 66 66 66 66 66 66 65 64 68 69 69 69 69 68 67 66 66 66 66 67 66 68 67 68 73 74 72 72 73 72 74 74 74 74 74 73 71 70 71 70 70 69 68 67 66 66 65 65 66 66 66 66 67 67 67 61 58 58 58
64 65 65 66 66 66 67 67 66 66 65 66 68 68 68 66 66 66 65 66 66 65 66 66 69 71 73 77 75 75 72 74 71 72 73 74 73 73 72 71 70 70 71 70 69 69 67 66 65 65 68 66 62 63 64 63 64 64 65 64 59 59
64 65 66 65 65 64 65 66 67 67 67 67 67 66 66 65 66 65 65 65 64 65 67 66 67 69 73 76 75 75 74 75 75 74 75 75 73 74 72 71 71 71 71 70 69 69 68 66 65 66 66 65 64 65 63 62 61 64 63 61 60 60
64 65 66 65 64 64 64 66 67 67 67 67 67 67 66 66 66 66 66 64 65 65 64 66 66 66 72 75 74 74 75 75 74 75 74 73 73 73 73 72 71 70 70 70 69 69 69 67 66 66 66 66 66 68 66 65 65 63 64 62 63 62
64 66 66 65 63 64 64 65 66 66 67 68 67 68 68 67 67 67 66 65 65 64 65 64 64 67 72 73 73 73 73 73 73 74 74 74 73 74 73 72 72 71 70 69 68 69 68 67 67 66 66 68 67 69 67 67 67 67 66 65 64 62
65 66 66 65 65 63 64 65 66 66 67 68 67 69 68 67 67 67 66 66 66 66 66 66 67 70 72 74 74 74 74 74 74 74 73 73 73 73 74 74 72 71 71 70 70 69 68 68 68 69 69 67 67 65 65 68 66 66 66 64 63 63
65 65 65 65 65 64 64 64 66 67 67 68 68 69 69 67 67 66 66 66 66 68 69 70 72 73 74 73 73 73 73 73 73 73 73 72 73 73 73 73 73 71 71 70 70 69 68 68 69 70 68 67 66 67 66 68 67 67 70 68 66 65
66 66 65 65 65 65 65 67 67 67 68 68 68 68 67 67 67 66 66 67 67 68 71 73 73 73 73 74 73 73 73 73 73 73 72 72 73 71 72 71 71 70 69 73 70 69 69 70 69 69 68 67 67 67 68 67 68 68 69 69 68 67
67 66 66 66 65 66 67 66 67 68 68 68 69 68 67 66 66 66 66 67 68 70 72 73 73 73 73 73 73 72 72 72 73 73 73 73 73 72 72 71 70 70 70 71 70 71 70 69 69 69 68 67 67 67 67 67 66 66 68 67 68 67

ECMWFFLT2_sfc_temp_063.txt.gz
Temp
73 73 73 73 73 73 74 75 75 75 75 75 75 75 75 75 75 75 75 75 74 73 72 73 73 73 75 73 74 75 76 76 75 75 75 74 74 75 75 75 75 74 74 74 73 73 73 73 74 73 74 74 74 70 72 73 72 71 70 70 70 71
73 73 73 73 73 74 74 74 73 73 73 74 75 75 74 73 75 73 75 73 71 72 70 71 71 74 72 73 74 75 76 75 75 75 74 74 74 74 74 74 74 74 74 74 73 68 69 72 74 74 74 74 70 69 73 73 71 71 71 70 69 72
73 73 73 73 73 73 73 72 72 72 73 74 74 74 73 74 71 72 71 71 71 71 71 71 71 73 73 74 74 75 75 75 74 74 74 74 74 74 74 74 74 74 74 73 70 68 69 69 68 75 74 70 69 72 73 73 72 70 69 70 69 74
73 73 73 73 72 72 72 72 72 72 72 72 72 73 72 72 71 71 71 70 69 71 70 70 75 76 75 72 73 75 75 75 74 74 74 73 74 74 74 74 74 74 73 71 68 68 70 69 68 68 68 70 73 74 73 73 72 70 69 73 72 74
74 74 73 72 72 72 72 72 72 72 72 72 71 71 71 71 71 70 70 70 70 70 70 70 70 70 69 70 69 70 72 70 70 69 72 67 68 71 69 69 69 70 67 68 69 69 69 69 69 69 70 71 71 73 74 73 72 70 69 69 70 74
73 73 72 72 72 73 73 72 72 73 72 72 71 70 70 70 70 70 69 69 70 70 69 69 69 70 70 70 69 69 69 69 68 69 69 68 67 68 68 70 70 69 67 69 70 70 70 70 70 70 70 69 70 71 72 72 71 70 69 68 71 74
71 71 72 72 72 73 72 73 72 72 72 71 71 70 69 69 69 69 69 69 68 68 68 68 69 69 70 70 69 69 69 69 69 68 69 67 67 68 70 69 67 67 68 68 71 72 71 71 71 72 70 69 70 70 68 69 70 70 69 69 71 74
70 70 69 69 70 69 68 69 70 72 71 72 71 70 69 69 69 68 69 69 69 68 68 68 68 69 70 70 69 70 69 69 68 69 69 70 69 68 69 69 67 68 69 71 71 73 72 72 69 70 69 69 68 67 67 68 69 70 69 69 69 72
70 70 68 68 68 68 68 68 68 68 68 70 69 71 70 69 68 68 69 69 69 67 67 69 69 69 70 69 69 70 69 69 69 69 69 68 69 68 68 68 67 69 69 70 70 72 72 71 68 68 69 68 68 67 67 67 68 70 69 69 68 70
70 69 68 68 67 67 67 67 67 67 68 69 68 70 70 69 68 68 68 69 68 67 67 66 67 69 69 69 69 69 70 69 70 71 69 69 69 68 67 68 69 69 70 69 70 72 71 70 70 69 68 68 67 67 66 66 67 68 70 69 68 70
71 69 69 68 67 67 68 67 68 68 68 68 68 70 70 69 68 68 68 68 68 68 67 67 67 68 71 71 70 70 71 70 70 71 71 71 71 71 70 69 70 69 68 69 68 70 69 69 69 69 68 67 66 66 65 66 67 67 68 68 67 68
70 69 69 68 68 68 68 68 68 68 67 67 68 69 69 69 68 68 68 67 67 67 67 67 67 67 71 70 70 70 69 70 70 69 72 71 70 70 69 70 70 70 68 68 67 68 69 68 68 68 67 66 66 65 65 65 66 66 67 66 66 68
70 69 69 69 69 69 69 70 68 68 68 69 69 70 69 68 68 68 68 67 67 67 66 66 66 66 67 70 71 70 68 69 70 71 71 71 71 70 70 69 69 69 67 66 67 66 69 67 67 66 66 65 65 65 65 65 65 65 65 66 65 65
69 69 69 69 69 69 68 67 68 67 69 70 69 69 69 68 68 68 67 67 67 67 67 67 67 66 67 68 69 69 69 69 70 70 71 71 70 69 69 69 67 65 67 65 64 65 66 66 66 65 65 65 65 65 65 65 64 64 65 65 65 65
70 69 70 69 70 68 67 68 67 68 68 70 70 69 69 69 68 68 67 66 67 67 67 68 67 66 66 67 68 69 69 69 71 70 71 69 69 69 68 66 66 65 65 64 64 65 65 66 65 64 64 65 65 65 65 64 64 64 64 64 65 65
69 69 70 69 68 66 67 67 67 69 68 69 70 69 69 68 68 67 67 66 67 67 67 66 67 67 66 66 66 68 68 69 71 70 70 69 70 69 67 67 66 65 64 63 64 63 64 65 65 64 64 64 64 64 64 64 64 64 65 65 65 65
69 69 69 68 66 66 66 66 67 68 68 69 69 69 69 69 68 68 67 66 66 67 66 67 67 68 66 67 67 66 67 69 70 69 69 68 67 68 68 67 65 66 65 63 63 63 63 64 64 64 63 63 64 64 64 63 64 64 65 64 64 65
68 67 67 68 66 66 66 66 66 67 68 68 68 68 69 69 68 68 68 67 67 67 67 67 67 67 66 67 67 67 66 69 69 69 68 68 67 67 68 66 65 66 65 64 63 63 63 64 65 64 64 63 63 63 62 63 64 66 64 64 65 64
65 66 67 67 66 66 66 65 65 66 66 66 67 67 67 67 68 67 67 68 68 67 68 67 67 67 67 67 66 66 68 68 69 68 69 67 67 67 67 67 66 66 66 65 64 64 64 64 65 64 63 62 62 62 62 63 64 64 64 64 65 65
65 66 66 66 66 65 65 64 64 65 65 66 67 66 67 67 67 66 68 68 68 67 68 67 68 67 67 66 65 66 68 68 69 69 67 67 65 66 67 67 67 66 64 65 65 65 65 64 64 63 62 62 62 62 62 63 63 63 63 63 63 63
65 65 65 65 65 64 63 63 64 64 65 66 66 66 66 67 67 67 68 68 68 67 67 67 68 68 67 67 67 67 68 68 69 69 67 67 67 67 67 67 66 66 65 63 63 65 65 65 63 62 62 62 62 63 64 63 62 62 62 62 63 62
64 65 65 65 65 65 64 64 64 65 65 65 66 65 65 66 67 68 68 67 67 67 68 67 67 67 68 68 68 68 68 67 68 68 68 68 67 68 67 68 67 65 66 64 63 64 65 65 61 60 59 60 61 61 62 62 62 62 62 62 62 63
65 65 65 65 65 64 65 66 66 65 66 65 66 67 68 67 68 67 67 66 66 66 67 67 67 66 67 68 69 68 68 68 68 68 67 67 67 67 67 67 67 65 63 64 64 66 65 64 60 61 61 59 57 57 60 61 62 62 63 63 62 62
64 65 65 65 65 66 67 66 66 65 66 67 66 68 67 67 67 66 66 67 66 66 66 66 68 68 68 69 68 68 68 68 68 68 67 66 66 67 67 66 66 66 65 63 63 64 66 64 64 62 56 55 56 57 55 57 59 61 63 62 60 61
64 64 65 66 66 66 66 65 65 65 65 66 66 66 66 65 66 66 66 66 65 67 67 67 68 68 68 67 68 66 67 68 68 68 68 67 66 67 67 67 67 65 65 63 62 61 63 64 65 63 60 57 55 54 55 58 60 59 62 60 60 60
64 64 65 65 66 65 65 64 63 63 62 63 63 64 63 64 64 65 65 66 66 67 67 67 67 68 68 67 66 65 66 66 67 68 67 66 68 67 67 66 67 66 65 65 64 62 60 63 63 64 62 60 59 55 55 58 59 55 61 60 60 61
64 64 65 65 65 65 64 64 64 64 64 64 63 64 66 66 65 65 65 65 65 66 67 66 66 67 67 67 66 66 65 65 68 67 68 67 67 67 68 69 66 67 66 65 64 62 61 61 62 63 64 63 63 61 63 59 55 58 55 59 60 58
64 64 65 65 65 65 64 64 64 64 64 64 64 64 66 66 66 66 65 65 65 64 65 65 65 66 67 67 65 64 64 65 67 68 68 67 66 66 68 68 66 68 66 66 65 63 61 61 61 61 62 62 62 64 63 60 62 60 58 55 57 61
63 64 64 64 64 65 65 65 65 65 64 65 65 65 66 66 65 65 64 64 64 64 64 65 66 66 66 66 65 65 66 66 67 67 68 68 67 67 67 66 66 66 65 65 65 64 63 62 62 61 61 60 61 61 60 60 61 62 58 57 57 58
63 64 64 64 65 65 65 65 64 64 64 64 65 65 65 65 64 64 63 62 62 63 63 63 64 66 65 66 65 66 67 67 68 68 68 67 67 66 66 67 67 66 66 65 64 65 64 62 63 63 62 61 59 59 59 59 60 59 60 60 56 57
63 64 64 64 64 64 65 65 64 64 65 65 65 65 64 64 63 62 62 62 62 62 63 63 64 65 65 66 66 67 66 67 67 66 67 66 66 66 67 67 67 67 66 66 64 64 63 62 63 62 62 61 61 61 60 58 59 60 59 57 57 57
63 63 64 64 63 64 65 65 65 65 65 66 66 65 64 63 63 63 62 61 62 62 62 63 63 63 65 66 67 67 67 68 68 66 67 67 67 68 67 67 66 66 66 66 65 64 63 62 62 62 62 61 61 63 61 61 61 61 60 58 59 57
62 64 64 64 63 63 64 64 65 64 64 66 66 66 65 64 64 63 62 61 61 61 61 62 62 63 64 66 68 68 68 68 67 67 68 69 68 69 68 67 67 66 66 65 64 64 62 63 63 62 62 63 63 63 62 62 62 62 61 61 60 57
63 64 64 64 64 63 64 64 64 64 64 64 65 66 65 64 64 63 63 62 62 62 62 63 63 64 65 67 68 68 68 68 68 67 67 67 68 68 68 67 67 66 66 65 65 64 63 63 63 63 64 63 63 62 63 64 63 62 62 61 58 59
62 63 64 64 64 63 62 63 64 66 65 64 64 64 64 65 64 63 63 62 63 63 63 63 64 65 66 68 68 68 68 68 67 67 67 67 68 68 66 67 67 66 66 66 65 64 63 63 64 64 63 63 62 62 62 63 64 63 64 63 62 61
62 62 63 63 62 63 63 64 65 66 66 66 65 64 64 64 65 64 64 63 63 63 65 65 66 66 67 69 68 67 67 67 67 67 67 67 67 67 67 66 65 66 66 68 65 64 64 64 64 64 63 63 62 62 63 63 64 63 63 64 64 63
62 63 62 63 63 64 64 64 65 66 66 66 65 64 63 64 64 64 64 64 64 65 66 66 67 68 68 68 67 67 67 67 67 67 66 66 67 66 66 66 65 65 65 66 65 65 64 65 64 64 63 63 62 63 62 63 62 63 64 65 65 65

ECMWFFLT2_sfc_temp_069.txt.gz
Temp
73 72 73 73 73 72 74 75 75 75 75 75 75 75 75 75 75 75 75 75 73 72 71 72 72 72 74 73 74 74 74 74 74 74 74 74 73 73 73 73 73 73 73 73 73 74 73 74 74 73 73 73 72 66 65 64 64 65 64 65 67 67
72 73 73 73 73 73 73 74 71 72 73 74 75 75 74 73 75 72 75 72 70 71 69 69 71 74 71 73 73 74 74 74 74 74 73 73 73 73 73 73 73 73 73 72 71 66 70 74 74 73 72 71 66 64 64 64 64 65 64 64 65 70
72 73 73 72 72 72 71 70 71 71 72 73 73 73 71 72 70 71 70 70 70 69 69 69 69 72 72 74 73 74 74 74 74 74 74 73 73 73 73 73 73 73 71 69 66 65 66 68 71 74 72 67 64 64 64 64 64 64 64 65 65 74
72 72 72 72 71 71 71 71 70 70 70 70 70 71 70 70 70 69 69 69 68 69 69 69 73 74 74 71 72 74 74 74 74 74 74 72 73 73 73 73 73 71 68 67 66 65 66 67 67 67 65 64 64 64 64 64 63 64 65 68 67 74
72 72 72 71 71 71 72 72 71 71 70 69 69 69 69 69 69 69 68 68 68 68 68 68 68 69 68 69 68 68 70 68 68 68 70 64 65 68 67 65 66 65 64 66 66 65 66 66 66 66 66 65 65 64 64 64 63 63 63 64 67 73
71 71 71 71 72 72 72 71 71 71 70 70 70 69 68 69 68 68 68 68 68 67 67 67 67 67 67 68 68 67 67 67 66 66 67 63 63 63 63 64 64 65 64 66 66 66 66 66 65 65 66 65 65 65 64 63 64 63 63 64 69 73
70 70 71 71 71 72 71 71 71 70 70 70 70 69 68 68 68 68 68 68 67 67 67 66 67 67 67 68 67 66 66 66 66 65 65 65 63 63 63 63 62 63 62 65 66 66 65 65 66 66 66 65 64 64 63 63 63 63 63 65 70 73
69 69 69 70 70 70 69 70 70 70 70 71 70 69 69 68 68 68 68 68 68 67 67 66 67 68 68 67 66 66 66 65 64 64 65 65 63 63 63 63 63 62 64 64 66 66 66 66 65 65 65 64 64 63 63 63 64 64 63 63 66 72
69 69 68 69 69 69 69 69 69 70 69 71 69 69 69 68 68 67 68 68 68 67 66 67 67 68 67 67 66 66 65 65 64 64 64 63 64 63 63 62 63 64 62 63 63 66 66 65 64 65 65 64 64 63 63 63 63 63 63 63 65 69
68 68 68 67 67 68 68 68 69 69 69 70 68 68 68 68 68 68 67 68 68 67 67 67 67 67 67 66 66 66 66 64 64 64 64 64 63 63 63 62 62 63 63 62 63 66 65 65 65 65 64 64 63 63 63 63 63 63 63 64 64 69
68 69 68 67 67 67 67 67 68 69 69 69 68 68 68 68 67 68 67 68 68 68 67 66 67 67 67 66 66 66 65 64 64 64 64 65 63 64 63 63 63 63 62 62 64 65 65 64 64 64 64 64 63 63 63 63 63 63 63 63 63 64
68 68 68 67 67 67 67 66 66 67 68 68 68 68 67 68 68 67 67 67 67 67 67 66 67 67 67 66 66 66 65 64 64 64 64 64 64 64 62 62 63 64 63 64 64 64 64 64 63 63 63 63 63 63 63 63 63 63 63 62 62 63
67 67 67 67 67 67 67 66 65 67 67 68 68 68 67 67 67 67 67 67 67 66 66 66 66 67 67 66 66 65 65 65 65 65 65 64 64 63 63 63 63 64 64 64 64 63 64 63 62 62 63 62 63 63 63 63 63 63 62 61 61 62
67 66 66 66 66 66 66 66 66 67 67 68 68 67 67 67 67 67 67 67 66 67 66 65 66 65 66 65 65 65 65 65 65 64 64 65 64 63 63 63 63 64 65 64 63 62 62 62 61 61 62 62 62 62 63 63 62 62 62 62 61 61
67 66 67 66 66 66 66 66 66 66 66 67 68 67 67 67 67 66 66 66 66 66 66 66 66 65 65 65 65 65 65 66 66 66 65 65 64 64 64 63 63 63 62 62 62 62 62 61 61 62 62 62 63 63 62 62 62 62 62 61 62 61
66 65 66 66 65 66 66 66 66 67 66 67 67 67 66 67 67 66 66 66 66 67 66 66 65 65 65 65 65 64 65 66 67 66 66 65 65 64 63 62 63 64 63 62 62 61 61 61 62 62 63 63 63 63 62 62 62 62 62 62 62 61
65 66 65 66 65 66 65 65 66 66 66 67 67 67 67 67 66 66 66 66 66 67 66 66 65 65 65 65 64 65 64 65 66 66 65 65 64 64 63 63 62 63 64 63 63 62 62 62 62 62 62 63 63 63 63 62 61 62 62 62 60 61
65 65 65 65 65 64 65 65 65 66 67 67 68 67 67 67 66 66 66 66 66 66 66 65 65 65 64 65 65 64 64 65 66 66 65 64 63 63 63 63 61 61 63 63 62 62 62 62 62 62 62 62 62 63 63 62 61 64 62 62 62 61
65 65 65 65 65 65 64 64 65 65 66 66 66 68 67 66 66 66 65 65 66 66 66 65 65 65 65 65 64 64 64 64 65 65 64 64 63 63 63 63 63 61 62 62 63 63 62 63 62 62 62 62 62 63 63 63 63 62 62 62 63 63
64 64 65 65 65 64 64 64 64 65 65 65 66 67 67 66 65 65 65 65 65 65 66 65 65 65 65 65 64 64 64 64 64 64 64 63 63 62 62 62 62 62 62 64 65 64 64 63 62 62 61 62 63 63 64 64 64 63 63 63 62 61
63 64 64 64 64 64 63 63 64 65 65 66 66 67 66 65 65 65 66 66 66 65 65 66 66 65 65 66 65 64 64 64 65 64 64 64 64 63 63 63 62 62 62 62 63 64 63 63 61 60 62 62 62 64 64 64 63 63 62 63 62 62
63 64 64 64 64 64 64 64 64 65 65 66 66 66 65 65 66 66 66 65 65 65 65 65 66 65 65 65 64 64 64 64 65 64 65 64 64 64 63 62 62 61 62 63 62 64 63 63 60 59 58 59 60 62 63 63 62 62 62 62 61 61
63 64 64 64 64 64 64 65 65 65 66 66 67 67 67 66 66 65 65 65 65 65 65 65 66 65 65 65 65 64 64 64 64 65 64 63 63 63 62 62 62 62 62 63 63 64 64 61 59 61 61 59 57 57 59 61 62 62 62 62 61 61
63 64 64 64 65 65 66 66 66 66 66 66 65 66 66 65 65 65 64 65 65 65 65 65 66 65 65 65 64 64 64 64 64 65 64 64 63 62 62 62 62 62 63 61 62 62 63 60 62 61 56 57 57 57 55 57 59 61 62 62 62 61
63 63 64 64 64 65 65 65 65 64 65 64 65 65 64 64 64 65 65 64 65 65 66 65 65 65 65 64 64 64 64 64 64 64 65 64 63 63 62 63 63 62 62 62 61 62 62 61 62 62 60 56 55 55 55 57 59 59 61 61 61 61
63 63 64 64 64 64 64 64 64 63 62 63 63 62 62 63 63 63 64 65 65 65 65 65 65 65 66 65 64 64 64 64 63 63 64 64 64 63 62 62 63 63 62 63 63 62 61 61 62 61 58 58 60 56 56 58 59 54 59 60 60 62
63 63 64 64 64 64 63 64 64 65 65 64 63 64 65 65 64 64 64 63 64 64 65 65 65 65 65 66 64 64 63 63 63 63 64 64 63 63 63 63 63 63 63 62 62 61 61 61 61 60 59 58 58 57 60 58 55 57 55 58 60 60
63 64 64 64 64 65 64 63 64 64 65 64 64 63 64 63 64 64 63 63 63 63 64 65 64 65 65 65 64 63 63 63 63 63 64 64 64 63 63 64 64 64 63 63 62 61 61 61 60 59 59 58 58 58 61 56 59 57 56 54 56 59
62 63 63 64 64 65 65 64 63 63 63 63 64 63 63 64 63 63 62 62 63 63 63 63 64 65 65 65 65 64 63 63 63 63 65 64 64 64 63 63 62 62 61 62 62 62 62 61 60 59 58 55 57 58 57 56 58 57 55 55 55 57
61 61 62 63 64 65 64 64 64 63 64 63 62 61 62 62 62 62 62 62 62 63 63 63 63 64 64 64 64 64 63 63 63 63 64 63 64 64 63 63 63 63 62 62 62 62 62 61 61 60 60 57 55 55 56 56 56 55 55 55 55 56
60 60 61 63 64 64 64 63 64 63 64 63 61 61 61 62 63 63 62 62 62 62 62 62 63 63 64 64 64 64 63 63 63 64 64 63 63 64 63 64 63 63 63 62 61 61 61 61 61 60 59 59 59 59 58 56 56 56 54 53 55 57
60 61 62 63 64 63 64 64 63 63 63 63 64 63 62 62 63 63 62 62 62 62 61 61 62 62 62 63 63 63 64 64 63 63 64 64 64 64 64 64 63 63 63 63 62 62 61 60 60 60 59 59 59 60 59 59 58 58 57 55 57 57
60 62 63 63 62 63 64 63 63 63 63 64 64 64 64 64 64 63 62 61 60 60 61 60 61 61 62 63 63 63 63 63 63 64 64 64 64 64 63 63 63 63 62 62 62 61 60 60 61 60 59 59 59 59 59 58 59 58 57 57 58 56
61 62 62 63 63 62 63 63 62 63 64 64 64 64 64 64 63 62 61 61 61 61 61 61 61 61 62 63 63 63 64 64 64 64 64 64 64 64 63 63 63 63 62 62 62 61 61 61 61 61 60 59 59 59 57 59 59 58 57 57 56 57
60 61 62 62 62 62 62 61 62 62 62 63 64 64 64 63 62 61 61 61 61 62 62 62 62 63 63 63 63 63 63 63 63 63 63 63 64 64 63 63 63 63 63 62 62 61 61 61 61 60 59 60 59 59 58 58 59 59 59 59 58 57
60 60 61 61 61 61 61 61 61 62 63 63 64 62 61 60 61 62 61 61 61 61 62 63 62 62 62 63 63 63 63 63 63 63 63 63 63 63 63 63 62 62 62 63 61 61 60 60 61 60 60 59 60 59 59 59 60 60 60 60 59 59
60 60 60 59 60 60 60 61 61 63 63 63 63 62 61 60 61 61 61 62 61 62 62 62 62 63 62 62 63 63 63 63 63 63 63 63 64 63 63 63 62 62 62 62 61 61 60 60 60 60 59 59 60 60 59 59 60 60 60 59 60 60

ECMWFFLT2_sfc_temp_072.txt.gz
Temp
72 71 72 72 72 72 74 75 74 75 75 75 74 74 74 75 75 75 75 74 73 72 71 72 72 72 74 73 73 74 74 74 74 74 74 73 73 74 74 74 74 74 74 74 73 73 73 73 73 73 73 72 70 66 65 66 66 68 68 69 68 69
72 72 73 72 72 72 73 73 71 72 72 74 74 75 73 73 75 72 74 72 70 72 70 70 71 73 72 73 73 74 74 74 74 74 73 73 73 73 74 73 74 73 73 73 74 71 72 73 73 72 71 70 66 65 65 66 66 67 67 68 69 73
72 73 72 72 72 72 70 70 70 71 72 73 73 72 71 72 70 70 70 70 70 69 69 70 71 72 72 73 73 74 74 74 74 74 73 73 73 73 73 73 72 71 71 71 69 68 68 69 71 72 70 67 65 65 65 65 66 66 66 69 69 74
72 72 72 72 72 71 71 71 70 70 70 70 70 70 69 69 70 70 69 69 69 69 69 69 73 74 73 71 72 74 74 74 74 74 74 71 73 74 73 72 71 70 69 67 67 68 68 67 66 65 65 65 65 65 66 66 66 66 66 69 69 74
72 72 72 71 71 71 71 71 71 70 69 69 69 68 69 69 69 69 69 69 68 69 68 69 70 70 69 69 69 69 69 68 67 67 69 66 67 68 67 67 66 66 66 67 67 67 67 66 66 66 65 65 66 66 66 66 66 66 66 68 71 73
71 71 71 72 71 72 72 71 71 71 70 69 69 68 68 68 68 68 68 68 69 68 68 68 68 68 68 69 69 68 66 66 66 66 67 64 64 65 66 66 66 66 66 66 67 67 67 67 66 66 66 65 66 66 65 66 66 66 66 68 71 73
71 71 71 71 71 72 71 71 71 71 70 69 69 68 68 68 68 68 68 68 68 68 68 67 68 69 69 70 69 67 66 66 65 65 66 64 64 63 65 66 66 65 65 66 67 67 66 67 67 67 66 66 66 65 65 65 66 66 66 67 71 73
70 70 70 71 70 70 70 70 70 71 70 70 70 69 69 68 68 67 68 68 68 67 67 68 68 69 69 69 68 67 67 66 65 65 66 65 64 63 63 64 64 64 66 66 67 67 67 67 67 67 66 65 65 64 64 64 65 66 66 67 70 72
70 70 70 70 70 70 70 70 70 69 69 71 69 69 68 68 68 68 68 68 68 66 66 68 68 69 69 69 68 66 66 66 65 65 65 65 64 63 63 63 64 64 64 65 66 66 67 66 65 66 66 65 64 64 64 64 65 66 66 66 68 71
69 69 69 69 69 69 69 69 69 69 69 70 69 68 67 66 68 68 67 67 68 67 67 67 68 68 68 68 67 67 66 65 65 65 66 65 64 63 62 62 63 64 65 65 66 67 67 66 66 66 65 65 64 64 64 64 64 65 65 66 68 71
69 70 69 68 69 69 69 69 69 69 69 69 69 68 67 67 68 68 68 68 67 68 67 67 68 68 68 68 67 67 65 65 65 64 65 65 64 64 62 63 64 64 64 64 66 67 67 66 66 66 65 65 64 64 64 64 65 65 65 66 67 68
68 69 69 68 69 69 69 69 69 69 69 69 69 68 67 68 68 68 68 67 67 67 67 66 67 68 68 67 67 67 65 64 65 64 65 65 64 63 63 63 64 64 63 65 65 65 66 66 64 64 64 64 65 64 64 65 65 64 64 64 65 66
68 68 68 67 68 68 69 68 68 69 69 69 69 68 67 68 68 68 67 67 67 67 67 66 66 67 68 67 67 66 65 65 65 65 65 64 65 64 64 64 64 64 64 65 65 64 65 64 64 63 64 64 64 64 65 65 64 64 65 64 64 64
67 66 66 67 67 67 67 67 67 68 69 69 68 68 68 68 68 68 68 67 67 67 67 66 66 66 67 66 66 66 65 65 65 65 64 64 64 64 64 64 63 64 65 64 63 63 63 63 62 63 64 63 64 64 64 64 64 64 64 64 64 64
67 66 67 66 67 67 67 67 67 67 68 68 69 68 68 68 68 68 68 67 67 67 66 66 66 66 66 66 65 65 65 65 65 65 65 64 65 64 64 63 64 64 63 63 63 63 63 62 63 63 63 63 64 64 64 64 63 64 64 64 64 64
66 66 66 66 66 66 67 66 66 68 67 68 68 68 67 67 67 67 67 67 67 67 66 66 66 66 65 65 65 65 65 65 66 65 65 64 65 64 63 63 64 64 63 62 62 61 63 62 63 63 63 63 64 64 63 63 63 63 63 64 64 64
66 65 65 65 65 65 65 66 66 67 66 67 67 67 66 66 66 66 66 66 67 67 66 66 66 66 66 65 65 65 65 65 66 66 65 65 64 64 63 64 63 64 65 62 62 62 62 63 63 63 63 63 63 64 63 63 63 63 64 63 63 63
66 65 65 65 65 65 65 65 65 66 66 66 67 67 67 66 66 66 66 66 66 67 66 66 65 65 65 65 65 65 64 65 66 66 65 64 63 63 64 64 62 63 64 63 62 62 62 62 63 62 63 63 63 63 63 62 63 64 64 63 63 63
65 65 64 64 64 64 64 64 64 65 65 66 67 67 66 66 66 66 65 66 66 66 67 65 65 65 64 65 65 64 64 65 65 65 64 64 63 63 63 63 63 63 64 64 64 63 62 63 63 62 62 62 63 63 63 64 63 63 63 63 64 64
64 65 64 63 63 63 63 64 64 65 65 65 66 66 66 66 65 65 66 66 65 65 66 66 65 65 65 65 64 64 65 65 65 65 64 63 63 63 63 63 63 63 63 64 65 64 64 63 63 62 62 63 63 63 63 64 63 63 63 64 64 63
63 64 64 63 63 63 63 63 64 64 64 65 65 66 65 65 65 65 66 66 66 66 66 66 66 65 64 66 65 64 65 65 65 65 64 64 64 64 64 64 63 64 63 62 62 64 64 64 62 61 62 62 63 64 64 64 63 63 64 63 63 61
62 63 63 64 64 64 64 64 63 63 64 64 64 65 65 64 64 65 65 65 66 66 66 66 66 65 65 65 64 64 64 65 64 65 65 64 64 65 64 63 63 62 64 63 62 63 63 64 61 60 59 59 61 62 63 63 63 63 63 63 62 62
62 62 63 64 64 64 64 65 64 63 64 63 66 67 67 65 65 65 65 65 66 65 65 65 66 66 65 65 65 64 65 65 65 65 64 63 64 63 63 63 63 63 62 64 63 64 63 64 60 62 62 60 58 57 59 61 62 62 63 62 62 62
63 62 62 63 64 63 64 65 65 64 65 64 65 67 68 66 65 65 64 66 66 65 65 65 66 66 66 65 65 65 64 64 65 65 64 63 63 63 63 62 63 63 64 61 62 62 64 63 63 62 57 58 58 59 54 57 59 61 63 62 62 62
62 61 61 62 63 63 64 64 65 64 65 64 65 66 65 64 65 65 65 65 65 66 65 65 66 66 66 65 65 65 64 64 65 65 65 64 63 63 63 63 63 63 64 63 61 62 63 63 64 64 61 58 56 55 56 58 59 58 61 61 62 62
62 61 61 61 62 63 63 63 63 63 62 63 63 63 63 63 63 64 64 65 66 66 65 65 65 65 66 65 64 64 64 64 64 65 65 65 65 64 63 62 63 64 63 64 63 62 61 63 64 61 59 60 61 58 57 59 60 54 60 61 62 62
62 62 63 63 63 64 63 64 64 64 64 64 63 64 65 66 65 65 66 65 65 65 66 65 65 65 65 65 64 64 64 64 65 64 65 65 64 64 64 64 64 64 64 64 64 61 61 61 63 62 61 60 60 59 62 60 56 57 55 58 60 60
63 63 63 64 64 64 64 64 64 64 64 64 64 63 64 64 65 65 65 65 65 65 65 65 64 65 65 65 64 63 64 64 64 64 65 65 65 64 64 64 64 64 64 65 64 63 62 62 61 61 61 59 59 58 62 59 63 60 58 55 56 60
63 63 63 63 64 64 64 64 64 64 63 63 64 63 64 64 64 64 64 64 64 64 64 65 65 64 65 65 65 64 64 63 63 64 65 65 65 64 64 63 63 62 62 63 64 63 63 62 62 61 59 57 58 60 59 59 60 60 58 56 56 57
61 61 62 63 64 64 64 64 64 64 63 63 63 63 63 63 63 63 63 63 63 63 63 64 64 64 64 64 65 64 63 64 63 64 65 64 64 64 64 64 64 64 63 63 63 63 63 63 63 61 61 59 58 58 59 59 58 58 59 58 57 57
61 61 62 63 64 64 64 64 64 63 63 63 63 63 63 62 63 62 63 62 63 62 62 63 63 63 63 64 64 65 64 64 64 64 65 64 64 64 64 64 64 63 63 63 62 62 62 62 62 61 61 61 61 61 60 59 58 59 57 55 57 57
61 61 62 63 62 63 64 64 63 64 64 64 64 64 63 63 63 63 63 62 62 61 61 62 63 63 63 64 64 64 64 64 64 64 64 64 65 65 65 65 63 63 63 63 63 62 62 61 61 61 61 61 61 62 61 61 61 61 60 59 59 58
60 62 62 63 62 62 63 63 63 64 64 64 64 64 64 63 64 63 63 62 61 61 61 61 62 62 63 64 64 63 63 63 63 63 64 64 64 65 65 64 63 63 63 63 63 62 62 61 62 61 61 61 61 61 62 61 61 61 60 60 60 57
60 61 62 62 62 62 62 63 63 63 64 64 63 63 63 64 64 63 62 61 61 61 60 61 62 62 64 64 63 64 63 63 63 63 64 64 64 64 64 63 63 62 63 63 63 62 62 62 62 63 63 61 60 61 60 60 61 61 60 59 58 59
60 60 60 61 61 62 61 61 62 62 62 62 62 62 62 63 63 62 61 61 62 61 61 61 62 62 63 63 63 63 63 62 63 63 63 63 64 63 63 63 63 63 63 63 63 63 62 62 61 62 61 62 61 60 60 60 61 62 63 62 61 60
60 60 60 60 61 60 61 61 61 62 62 62 62 61 60 61 62 62 62 61 61 61 61 61 62 62 62 63 62 62 63 63 63 63 63 63 63 63 63 62 62 63 62 64 62 62 62 62 62 62 62 61 61 61 61 61 62 62 63 62 62 62
59 60 60 60 60 60 60 60 61 61 61 62 62 62 61 61 61 62 61 61 61 61 61 62 62 63 62 62 62 62 62 62 63 63 63 63 62 62 62 62 63 62 62 63 63 63 62 62 62 62 62 61 62 61 60 60 61 61 61 61 62 63

ECMWFFLT2_sfc_temp_078.txt.gz
Temp
84 83 83 83 82 81 79 76 76 76 75 75 76 75 75 75 76 76 77 76 75 80 80 80 78 81 75 80 75 74 75 75 75 75 75 75 75 74 75 75 74 74 73 73 73 73 73 73 73 73 73 74 73 82 84 85 85 85 86 85 83 82
81 82 83 82 82 82 80 79 80 79 79 78 77 77 78 80 78 81 77 78 80 81 81 82 82 79 81 79 78 75 75 75 75 75 74 74 75 74 75 74 74 74 73 73 73 80 77 73 72 72 74 72 79 85 83 84 85 86 86 85 82 77
77 81 82 82 82 83 82 82 82 81 80 78 79 80 81 81 82 83 82 83 81 83 83 83 82 82 82 78 78 75 74 75 75 74 74 74 74 74 74 74 74 74 74 72 80 84 84 83 79 73 73 78 85 84 84 84 85 86 86 83 81 74
80 82 82 82 82 83 82 83 83 83 82 81 81 81 82 82 82 82 83 82 83 83 82 81 80 79 79 80 78 75 74 74 74 75 74 76 74 75 74 74 74 74 75 80 87 87 87 85 83 82 83 85 85 83 84 85 87 85 85 84 82 74
81 80 79 81 81 82 82 83 84 84 83 83 83 82 82 82 82 81 82 82 84 83 82 82 81 81 83 82 82 81 79 80 80 80 75 82 82 81 79 81 79 79 84 86 87 87 86 85 84 84 84 85 84 84 85 85 86 86 84 81 79 74
80 79 80 78 82 82 82 82 82 83 83 84 83 83 83 83 82 80 82 82 83 82 82 82 81 82 83 83 82 83 83 83 82 82 81 84 85 82 84 82 81 84 86 87 86 86 86 85 84 84 85 84 84 84 86 86 85 85 85 82 78 73
82 79 81 82 82 82 83 83 83 83 83 82 83 82 83 83 83 81 82 82 81 82 82 83 81 81 81 83 83 83 83 82 82 82 83 85 83 82 83 82 82 84 86 86 87 86 86 86 86 86 85 86 85 85 85 86 86 86 85 82 77 72
80 77 79 80 81 82 83 82 82 82 82 81 81 82 83 83 83 82 81 82 81 82 83 83 82 81 81 83 82 82 83 83 83 84 84 84 83 83 83 82 82 84 86 87 87 86 86 86 85 85 85 84 84 84 84 86 86 85 84 82 80 75
83 81 82 82 82 83 83 82 82 81 81 81 82 83 83 83 82 82 82 81 81 81 83 83 82 82 82 82 83 82 82 83 82 83 83 83 83 82 81 82 81 83 85 86 86 85 86 86 84 84 85 84 84 83 83 84 85 86 86 84 83 77
81 82 82 82 82 82 81 81 81 81 81 81 81 82 82 82 82 82 81 81 81 81 81 82 82 83 83 81 82 81 81 82 82 84 83 82 84 83 81 81 80 82 85 84 85 85 85 85 86 85 85 83 83 84 83 83 84 85 85 85 81 78
82 82 84 82 81 81 81 81 81 82 81 81 82 82 82 82 82 82 82 81 81 81 80 80 81 81 82 82 81 81 81 82 82 83 83 83 83 83 82 81 80 81 82 84 85 85 86 85 85 86 84 83 83 84 83 83 84 83 85 85 80 78
82 81 81 81 81 81 80 81 81 81 81 81 81 82 82 81 81 82 81 78 79 80 80 80 80 81 81 82 83 81 81 81 81 82 83 83 83 82 82 82 81 82 82 83 84 84 85 85 84 85 85 82 82 83 83 83 83 82 83 83 83 81
82 80 80 80 81 81 81 82 81 81 81 81 81 81 81 81 80 80 79 78 78 79 80 80 79 80 81 82 82 80 81 81 81 82 82 81 82 81 81 81 80 81 81 82 82 82 86 84 83 83 83 81 81 81 82 84 83 82 82 82 82 82
81 80 79 80 80 81 80 81 81 82 81 81 82 82 81 81 81 80 79 79 78 80 79 79 80 79 81 82 80 81 81 80 81 81 81 80 80 81 81 80 79 80 80 81 81 81 82 81 83 83 82 81 81 81 81 81 82 81 81 81 81 81
79 79 79 79 79 79 79 80 80 81 81 81 81 81 82 80 81 81 80 77 78 78 79 80 80 79 79 80 80 81 80 82 81 80 80 80 80 81 81 80 81 80 81 80 81 81 81 81 80 80 79 80 81 80 80 80 80 81 80 79 80 81
78 78 78 78 78 78 78 78 80 79 80 80 81 81 80 80 80 81 80 77 75 77 77 80 80 80 79 80 81 80 80 82 82 80 80 79 80 80 81 80 81 81 78 79 80 79 81 80 79 78 79 79 79 79 79 80 79 80 81 81 82 79
74 72 74 77 77 76 75 76 77 78 79 79 80 80 80 79 79 78 77 76 70 71 76 78 80 80 79 79 80 80 80 81 81 80 80 79 79 80 79 79 79 80 80 78 80 78 78 78 77 77 78 78 78 78 78 78 78 79 79 79 79 79
67 70 71 73 73 74 75 75 76 78 78 78 79 81 80 79 78 76 75 74 74 72 71 77 79 80 79 79 80 80 80 80 80 80 80 79 78 80 78 78 76 78 79 78 79 77 76 77 77 77 76 76 77 77 77 77 77 78 78 78 78 79
68 69 71 72 74 74 75 75 75 75 76 76 77 77 77 77 77 76 75 76 72 69 69 71 75 77 78 78 79 79 79 79 80 79 79 78 78 78 77 76 76 77 78 79 79 78 77 77 76 76 76 75 75 75 77 77 77 78 78 77 77 78
68 69 70 72 72 73 74 72 72 74 76 77 77 77 77 77 76 75 76 75 73 69 69 70 74 72 77 77 78 78 78 79 79 79 78 77 78 78 75 75 75 76 76 77 79 78 78 77 76 74 73 74 75 74 74 75 75 76 77 77 77 78
72 72 72 73 71 71 72 73 73 74 75 77 78 78 77 76 77 76 76 76 76 73 72 71 69 70 74 75 76 77 78 79 79 79 78 77 78 79 77 77 76 76 75 75 75 77 77 77 73 71 73 72 73 75 74 73 74 75 76 77 77 77
73 73 74 74 74 72 73 75 74 74 76 78 78 78 78 77 75 76 75 74 74 72 69 69 69 71 71 71 71 73 76 76 78 79 78 79 78 77 77 77 77 74 77 75 74 76 76 75 73 72 69 69 70 72 72 73 74 75 75 75 76 76
74 74 74 75 74 75 76 76 75 76 75 75 78 76 80 79 76 76 74 75 74 74 72 69 69 70 70 72 71 71 71 77 77 78 77 77 76 76 76 75 76 74 73 75 75 76 75 76 75 75 73 70 66 64 67 69 73 74 74 75 76 75
74 74 74 74 74 75 75 75 76 76 76 76 76 77 76 76 76 75 74 75 74 74 73 71 69 69 70 71 72 70 71 76 77 78 77 76 74 75 75 74 74 75 75 71 73 73 74 75 72 73 68 67 66 65 65 67 69 71 74 74 74 74
73 73 74 72 72 73 73 73 74 74 74 74 75 74 73 73 75 75 74 73 73 74 74 72 71 70 69 70 70 70 71 76 76 76 77 76 73 73 75 74 73 72 70 71 72 72 73 75 73 72 75 70 66 64 68 72 70 71 72 72 73 73
73 72 72 72 72 72 71 70 69 68 67 70 71 72 69 67 69 74 75 76 72 72 72 72 70 69 68 69 70 72 71 74 75 75 76 75 72 68 70 71 72 70 68 71 73 71 70 73 74 75 76 77 71 64 71 73 71 66 72 73 73 74
74 73 72 72 72 72 70 70 70 70 71 71 71 74 75 72 68 69 73 73 71 71 72 72 72 71 69 70 70 70 70 70 75 76 75 74 72 69 69 71 73 68 68 69 71 69 70 71 72 74 75 76 76 76 77 74 70 72 66 71 73 71
73 73 72 73 71 71 70 70 70 70 72 71 72 73 75 76 74 71 69 69 70 69 69 72 71 71 70 71 70 69 70 69 70 76 75 73 70 70 71 73 72 70 70 69 69 67 69 72 71 72 75 74 74 75 77 76 76 73 71 68 68 72
73 73 73 73 72 70 71 70 70 70 70 72 73 72 73 75 76 74 72 73 71 71 72 72 72 71 71 71 69 69 70 70 69 72 76 74 70 70 71 71 70 68 68 69 68 67 66 70 73 75 73 73 74 75 76 76 76 77 73 70 70 68
73 73 73 72 73 72 72 71 70 70 71 72 73 74 74 75 74 74 73 73 73 72 70 68 68 69 71 71 70 69 69 71 70 70 71 75 72 71 70 70 71 71 72 72 70 67 66 68 73 75 75 75 73 73 74 74 74 74 75 74 71 71
70 72 73 72 73 72 73 73 73 72 71 71 72 72 72 73 74 73 73 72 72 72 71 69 67 68 69 71 70 70 69 70 70 69 70 69 69 70 70 70 71 71 70 69 68 67 66 69 68 70 73 76 75 73 72 73 73 74 73 72 72 73
68 69 71 73 73 73 73 74 74 73 72 72 72 72 72 72 73 72 72 72 72 71 70 69 67 67 68 70 70 69 69 69 69 69 69 70 68 68 69 71 71 71 69 68 67 67 66 67 67 72 70 74 76 77 77 76 78 76 75 74 73 73
66 68 69 69 70 70 70 70 71 72 73 73 73 72 72 72 73 74 74 73 73 73 73 71 69 68 68 69 69 69 69 68 69 71 72 72 71 69 67 68 69 70 69 69 69 68 66 68 72 72 70 75 78 78 77 77 76 76 76 76 75 73
67 68 68 68 68 67 68 70 71 73 73 73 72 73 73 74 74 75 75 74 74 74 74 72 72 71 70 70 70 69 69 69 70 71 73 74 72 70 68 67 68 68 69 70 71 70 69 70 73 74 75 76 77 78 77 77 71 73 76 74 73 73
66 67 68 67 67 66 66 68 70 71 72 74 73 73 73 73 73 73 73 73 74 74 73 73 73 73 73 72 71 70 69 68 69 70 72 73 73 71 68 66 67 68 69 71 71 70 69 71 73 74 73 75 75 76 77 75 76 76 77 76 76 75
66 67 67 66 66 66 66 67 68 68 70 71 73 73 73 73 72 72 72 73 74 74 74 74 74 74 73 73 72 70 69 69 70 70 71 72 72 71 67 66 66 67 68 71 70 70 72 72 72 73 72 73 71 75 76 77 77 77 74 76 78 78
66 67 67 66 66 67 67 66 67 67 68 68 69 70 70 71 71 72 72 72 72 74 75 75 74 74 74 74 72 72 70 69 69 70 70 70 70 71 70 68 68 68 70 73 71 71 71 72 73 73 72 71 71 69 67 68 76 77 76 76 78 78

ECMWFFLT2_sfc_temp_084.txt.gz
Temp
79 79 78 78 77 77 77 76 76 76 76 76 76 76 75 76 76 76 76 76 75 76 76 75 75 76 76 76 75 76 76 76 75 75 75 76 75 75 75 74 74 73 73 73 73 73 73 73 73 73 74 74 74 73 75 80 80 78 77 75 74 74
79 78 79 78 78 78 77 77 77 76 76 76 76 76 76 76 77 76 76 76 76 76 76 76 75 77 75 76 76 76 76 75 75 75 75 75 75 75 75 74 74 73 73 73 73 72 72 73 73 74 73 74 73 73 77 81 80 78 76 74 73 73
79 78 79 79 78 78 76 76 77 77 77 76 76 77 76 77 77 77 77 77 76 77 77 77 76 77 77 76 76 76 76 75 75 75 75 75 75 75 75 74 74 74 73 73 73 73 73 73 72 74 74 73 72 74 81 80 79 77 75 74 73 74
76 76 75 72 72 75 76 77 76 77 76 75 76 76 77 77 77 77 77 76 75 77 78 76 79 79 79 76 75 75 75 75 75 75 75 75 75 75 75 74 74 74 73 73 74 75 77 76 74 73 72 73 74 78 80 79 78 77 75 75 75 75
73 70 71 71 72 71 75 70 70 71 73 76 75 75 75 76 76 76 77 76 78 75 70 70 70 76 76 76 75 74 74 74 74 74 74 74 74 76 74 74 73 73 73 75 77 78 77 76 75 76 75 75 78 79 80 79 78 76 74 73 72 74
72 72 70 70 71 72 72 70 70 71 71 71 71 72 70 69 69 70 73 76 71 70 70 69 69 69 75 77 75 75 74 74 74 75 74 75 75 74 74 75 75 74 75 77 77 80 79 77 77 77 78 77 78 78 79 80 77 74 72 71 72 74
70 70 71 71 71 71 70 70 71 71 71 70 71 70 70 70 71 71 70 71 70 69 70 69 69 69 67 72 75 74 75 74 75 75 74 75 76 75 76 76 75 75 77 79 81 83 82 81 79 81 78 80 79 80 78 80 76 74 72 71 73 74
70 70 71 71 71 70 70 71 72 72 71 70 70 70 70 70 70 70 71 72 70 71 70 69 69 69 70 70 72 74 75 74 75 76 76 77 78 77 77 77 76 77 79 81 82 81 81 83 80 79 79 78 80 79 78 79 78 75 73 71 72 73
70 71 70 71 70 70 71 71 71 70 71 71 70 70 70 69 70 70 70 71 71 69 70 70 70 71 71 70 70 69 71 75 76 76 76 77 78 77 77 76 76 77 79 80 80 79 81 82 79 79 80 79 79 78 77 78 77 76 74 72 72 73
71 70 70 70 69 70 71 71 71 71 71 72 71 70 72 70 70 70 70 72 72 72 70 72 72 72 70 70 71 71 70 70 75 76 76 76 78 78 76 76 77 78 81 80 80 79 79 79 81 80 79 77 77 79 76 78 77 77 75 73 71 71
71 71 71 71 70 71 72 72 71 71 71 71 71 71 71 70 70 71 71 71 72 72 71 72 72 71 70 70 70 69 69 69 68 75 76 77 78 78 77 76 77 76 78 79 79 79 80 79 79 81 79 78 77 77 77 78 77 76 74 72 71 71
73 72 71 72 72 72 72 72 72 72 71 72 72 71 71 71 71 71 72 71 73 73 74 72 73 71 71 70 70 70 70 70 71 68 70 77 78 79 77 79 78 78 77 78 78 78 80 78 78 80 81 78 77 77 77 78 78 77 75 73 72 72
73 72 72 72 72 73 73 74 73 73 74 74 73 73 70 70 71 72 72 73 73 73 74 73 72 72 71 71 70 70 70 70 70 69 69 69 74 78 78 76 77 79 77 78 76 77 82 79 77 77 79 78 78 78 77 78 76 77 76 75 73 72
73 72 73 74 73 73 74 74 75 75 75 75 74 74 71 71 72 73 73 74 72 74 75 74 73 72 72 71 70 70 70 70 70 70 70 70 70 74 76 76 76 76 77 76 75 76 76 76 77 78 77 77 77 78 77 77 75 74 75 75 74 73
73 73 73 73 74 74 74 75 76 75 75 74 75 75 72 71 71 71 73 72 71 72 75 75 74 72 72 71 70 69 68 69 70 69 68 70 69 67 70 75 76 75 75 74 76 76 77 76 75 77 75 76 76 76 76 75 75 74 75 74 74 74
74 74 73 73 74 75 74 75 76 77 76 76 75 74 72 71 70 71 72 72 73 75 75 76 75 74 71 71 70 69 69 70 71 69 69 69 68 68 67 68 74 75 72 74 75 75 75 75 75 72 75 74 75 75 75 74 74 75 75 74 75 73
75 75 75 76 76 76 76 75 76 76 77 76 73 72 71 72 71 70 71 72 72 73 73 74 74 74 71 71 70 70 69 70 70 69 69 68 68 67 68 68 72 74 70 69 74 75 72 72 71 69 71 74 74 74 74 73 73 74 75 74 72 73
76 77 76 76 76 76 77 77 75 77 77 74 75 76 73 71 70 71 71 70 73 73 73 74 74 74 72 72 71 70 70 69 70 69 68 67 67 68 69 68 68 72 69 69 69 70 69 68 68 67 67 72 73 73 73 72 74 74 73 72 71 72
76 76 76 76 77 77 77 77 76 75 72 74 76 76 76 74 74 72 70 71 71 71 73 74 73 74 72 71 70 70 70 70 69 69 68 67 67 67 68 68 68 69 70 68 68 71 67 68 69 67 67 69 71 73 72 73 73 72 72 71 72 73
76 76 77 76 77 75 75 75 74 75 74 73 74 74 75 76 73 70 71 71 70 70 72 73 74 73 72 71 70 70 69 70 69 68 67 67 67 67 67 68 68 67 68 71 71 72 70 67 66 67 66 65 66 69 73 72 72 71 69 71 71 70
75 76 76 76 76 75 74 74 74 74 73 74 75 75 75 74 75 73 74 73 72 71 71 72 73 73 72 71 71 70 69 69 69 68 67 67 68 68 68 68 67 66 67 67 68 68 67 67 64 64 65 63 66 66 69 69 68 69 68 69 70 69
75 76 75 75 75 74 74 74 73 74 74 75 75 75 73 74 74 74 74 73 72 71 71 72 72 72 72 71 70 69 69 69 68 68 68 68 69 68 68 68 66 65 67 65 65 67 66 66 62 61 61 62 63 65 66 68 69 69 68 69 69 70
75 75 75 75 75 74 75 75 75 74 75 75 79 78 79 76 75 74 73 73 72 71 71 72 73 73 72 71 71 70 69 69 69 68 67 68 68 67 67 66 66 65 65 65 65 67 66 66 63 63 63 62 59 60 64 66 67 68 68 69 69 69
75 75 75 75 75 76 76 76 76 76 76 75 75 77 77 77 76 75 72 73 72 71 72 71 73 74 72 72 71 70 70 69 69 69 68 67 67 67 67 66 66 67 67 64 64 64 67 66 65 63 58 60 61 60 59 61 63 66 68 68 68 68
74 74 75 75 75 76 75 75 76 76 76 76 76 75 75 74 75 72 74 72 72 73 73 72 72 73 73 72 72 71 70 69 69 69 69 68 67 67 67 67 67 66 66 65 64 65 66 67 65 67 63 61 59 57 60 62 63 63 66 65 67 68
74 74 74 75 75 75 74 73 72 71 71 71 71 72 71 70 71 71 72 74 74 74 74 73 73 74 74 73 72 72 71 70 69 69 68 68 68 67 67 66 67 67 65 65 65 64 64 67 67 66 66 65 64 59 59 61 62 58 65 67 66 68
74 74 75 75 76 75 74 74 73 72 72 72 71 72 73 73 72 73 74 74 73 73 75 74 73 74 74 74 73 72 71 71 71 70 69 68 67 67 67 67 67 66 65 64 64 63 63 64 66 66 66 66 65 67 66 61 59 62 58 62 65 64
73 73 73 74 74 74 73 73 73 72 73 72 72 72 73 73 72 73 73 74 73 73 74 75 74 74 74 74 73 72 72 71 70 70 69 68 67 68 67 67 67 67 66 65 65 64 63 63 63 65 66 65 66 68 68 67 66 63 60 58 60 65
71 72 72 73 72 73 72 72 72 72 72 73 74 74 73 73 72 71 71 72 73 74 74 74 74 73 74 74 73 72 72 71 70 70 69 69 68 68 68 67 66 66 66 65 66 67 66 64 65 66 65 66 66 65 66 66 67 65 62 59 60 61
70 70 71 71 71 71 71 72 71 71 71 71 73 73 73 71 70 70 70 70 70 70 70 71 72 72 71 72 72 73 72 72 71 71 70 70 69 69 68 68 67 67 67 67 68 68 67 68 67 68 67 66 64 64 64 63 63 62 62 63 60 61
69 70 70 69 70 70 70 71 70 70 70 70 71 71 71 71 70 70 69 69 69 69 69 69 68 68 68 71 72 70 70 70 70 71 70 70 69 69 69 68 68 68 68 68 67 68 67 68 68 67 67 66 65 65 63 62 62 62 61 60 60 60
68 69 69 69 69 69 69 69 69 69 69 70 70 70 70 69 70 70 70 69 68 67 66 67 68 67 67 70 71 69 68 67 67 68 68 70 70 70 69 69 68 68 68 68 68 67 67 66 67 66 67 67 66 66 65 64 64 64 62 61 61 60
67 68 69 69 69 68 68 68 68 68 69 69 69 70 70 70 71 70 69 67 67 67 67 66 65 66 67 67 67 69 67 66 66 67 68 67 68 69 68 68 67 68 68 68 67 67 66 66 67 66 66 67 67 66 65 65 65 64 64 63 62 60
67 68 68 68 68 68 68 68 68 68 68 68 68 68 69 69 70 70 69 68 68 67 66 65 65 65 66 66 66 67 66 67 69 72 71 69 68 68 68 66 67 66 67 68 68 67 67 67 67 67 68 67 67 67 66 66 65 64 63 63 61 61
66 67 68 67 68 68 68 68 68 68 68 68 67 67 68 69 69 69 70 69 67 66 67 67 66 67 68 67 67 67 67 68 69 69 70 70 71 70 67 67 65 65 67 67 68 68 67 67 67 67 67 67 67 67 66 66 66 65 65 64 64 63
67 67 67 67 67 68 67 68 68 68 67 68 67 67 67 68 69 69 70 69 69 67 67 67 67 68 68 69 67 66 66 66 67 68 67 68 68 69 68 66 65 67 66 69 67 66 67 68 67 68 67 68 67 66 67 67 66 65 65 65 64 63
67 68 67 67 67 68 67 67 67 67 67 66 67 67 67 68 68 69 69 70 69 69 68 68 68 69 68 69 69 68 66 66 67 67 67 67 67 68 67 65 65 66 67 68 68 67 65 67 68 68 67 67 66 66 66 67 67 66 65 65 64 64

ECMWFFLT2_sfc_temp_087.txt.gz
Temp
74 73 73 73 72 73 74 75 75 76 76 76 75 76 75 76 76 76 75 75 74 72 72 72 72 72 75 72 74 75 75 75 75 75 75 75 75 75 74 74 73 73 73 73 73 73 73 73 74 74 74 74 74 69 70 72 72 71 70 70 70 71
74 74 74 74 74 73 74 74 72 73 73 74 75 76 74 73 75 73 75 73 72 73 71 71 71 75 71 73 73 75 75 75 75 75 74 75 75 74 74 74 73 73 73 72 73 68 69 72 74 74 74 75 69 68 69 72 71 71 70 69 69 72
74 75 75 74 74 73 73 73 73 73 73 74 75 74 73 74 73 73 72 72 72 71 71 72 72 73 73 74 73 75 75 75 75 75 74 75 75 75 74 74 73 73 72 72 69 67 67 68 68 74 74 70 67 69 73 72 71 70 69 69 68 74
72 72 71 71 72 72 73 73 72 72 72 72 72 73 73 73 73 73 72 71 70 69 68 68 73 77 77 73 73 75 75 75 75 75 74 73 75 75 75 74 73 73 72 70 67 67 69 68 68 69 68 68 68 70 72 71 70 70 69 72 71 74
70 70 70 71 72 70 71 70 70 71 71 71 71 72 72 72 71 71 72 71 69 68 68 68 68 68 70 71 70 70 70 70 70 69 73 69 69 72 71 69 69 70 66 68 68 68 69 70 70 71 70 69 70 72 72 71 71 69 69 69 69 74
70 69 69 70 70 71 70 69 68 69 70 70 70 70 68 68 69 69 69 69 69 68 67 67 67 67 68 68 70 70 70 70 69 70 71 69 69 69 69 70 69 69 68 68 69 70 70 70 70 70 70 70 71 73 71 70 70 69 68 67 71 74
69 68 69 70 70 70 69 69 68 69 69 69 69 69 69 69 69 68 69 69 68 68 67 67 67 68 68 68 68 69 69 70 70 70 70 70 69 70 69 70 69 69 69 70 71 73 73 73 72 73 72 74 72 73 70 70 69 69 67 67 72 74
68 68 68 69 69 68 68 69 70 71 69 69 68 68 69 68 69 69 69 69 69 69 68 67 67 67 68 68 68 69 69 69 70 71 71 71 70 69 69 70 71 70 71 72 73 74 75 76 74 73 75 74 73 73 70 69 69 68 67 67 70 73
69 69 69 69 69 69 69 69 69 69 68 71 68 68 68 68 68 69 69 69 69 67 67 67 67 67 68 68 68 68 68 68 70 71 72 71 72 71 70 71 71 72 71 73 73 74 76 77 74 73 74 74 72 71 70 69 69 69 68 66 68 71
69 69 69 69 68 69 69 68 69 69 69 70 68 68 69 68 68 68 68 69 69 68 68 68 67 68 67 68 68 68 68 67 68 70 71 72 73 72 72 72 72 73 74 73 74 76 74 75 77 73 72 72 71 72 70 69 69 68 68 67 67 70
69 70 69 68 68 69 69 69 69 69 69 69 69 69 69 68 68 68 68 69 69 69 68 68 68 69 68 68 68 68 68 68 67 67 69 72 73 72 72 72 73 72 73 73 73 73 73 74 76 75 71 73 72 72 71 71 69 69 68 67 67 67
69 69 69 69 69 69 69 69 69 69 69 69 69 68 68 68 69 68 69 69 68 68 68 68 68 68 68 67 67 67 67 67 67 68 68 70 69 68 69 70 72 74 72 73 72 74 75 73 73 75 74 73 72 71 70 71 70 69 68 67 66 67
69 69 69 69 69 69 69 70 69 68 69 71 69 69 68 68 68 69 69 69 69 69 68 67 67 68 69 68 67 67 67 68 68 68 68 69 68 67 67 67 69 71 72 73 73 72 76 72 72 72 74 72 73 72 72 71 69 69 68 67 67 66
69 68 68 69 69 69 70 69 69 69 70 69 69 68 68 68 69 69 69 69 69 69 69 69 69 68 68 68 68 67 67 67 68 68 68 68 67 67 66 66 67 69 71 71 70 71 70 71 70 71 71 72 72 71 71 71 70 69 68 68 67 66
70 69 70 69 69 69 70 70 70 70 70 70 70 68 67 68 69 69 69 69 69 69 70 70 69 68 68 68 67 67 67 67 68 68 68 68 67 67 66 66 67 68 70 71 70 71 71 68 67 67 66 64 65 66 69 71 70 69 68 68 67 67
69 68 69 69 69 70 70 70 71 72 70 70 69 68 67 67 67 68 69 68 69 69 70 71 69 69 68 68 67 66 66 67 68 67 67 67 67 67 66 66 67 67 67 69 69 70 69 67 65 64 65 65 66 66 65 67 70 70 69 68 68 67
69 69 69 69 69 70 70 70 71 71 70 68 68 67 67 68 68 68 68 68 68 69 70 70 70 70 68 68 67 67 67 68 68 67 67 67 66 66 66 67 66 67 67 67 67 67 64 65 64 64 64 65 65 65 65 65 66 69 70 68 68 68
70 70 70 70 70 70 70 71 70 71 70 68 68 68 68 68 67 67 67 68 69 69 69 68 69 69 68 68 68 67 67 67 67 66 66 66 66 66 66 66 66 67 67 67 67 67 64 64 64 64 64 65 66 65 65 65 65 67 68 68 68 68
70 70 70 70 71 70 71 70 70 69 68 69 70 69 68 67 67 67 68 68 68 69 69 69 69 69 68 68 67 67 67 67 67 66 65 65 65 66 66 66 66 66 67 67 66 66 63 63 65 65 65 65 65 64 65 65 65 65 66 68 68 70
69 69 70 69 69 69 69 68 67 67 67 68 69 68 68 67 67 67 68 68 68 67 68 69 69 69 68 68 67 67 67 67 66 66 65 64 65 65 65 66 66 66 66 66 67 65 64 64 64 64 63 64 64 64 65 65 65 65 66 67 68 68
68 69 68 68 68 67 67 67 67 67 66 67 68 69 69 68 68 67 68 68 68 67 67 68 69 69 68 69 68 68 67 67 66 66 65 65 66 66 66 66 66 66 65 65 65 65 64 65 63 61 61 61 62 64 65 65 64 65 66 65 66 66
68 69 69 68 68 68 68 67 67 67 67 67 68 67 68 68 68 69 68 68 67 67 67 67 68 67 68 67 67 67 67 67 66 65 65 65 65 67 66 66 66 64 65 64 63 64 65 64 61 60 59 58 59 62 63 64 65 65 66 66 66 66
70 69 68 68 67 67 68 69 68 69 68 68 69 71 70 70 70 69 68 68 68 67 67 67 68 68 68 68 67 67 66 66 66 66 65 64 65 65 65 66 65 64 63 64 63 64 64 65 60 61 61 59 56 57 60 61 64 65 66 65 66 65
69 67 67 68 67 68 69 69 69 69 69 69 68 69 70 70 69 68 68 68 68 67 67 67 68 68 68 68 67 67 66 66 66 66 65 64 65 65 65 65 65 65 65 62 62 62 64 64 63 61 56 57 57 57 55 58 61 63 65 65 65 66
69 68 67 67 67 67 67 66 66 67 67 68 69 69 68 67 68 67 68 66 67 68 67 67 67 68 68 67 67 67 67 67 66 66 66 65 65 65 65 65 65 64 65 64 62 62 63 64 64 65 61 57 56 54 56 58 60 60 63 63 64 65
69 69 69 69 69 68 67 66 65 65 63 62 63 65 65 65 65 65 66 67 67 68 68 67 67 67 68 67 67 67 67 67 66 67 67 66 66 64 65 65 65 65 65 65 64 62 62 64 64 65 64 63 62 57 57 58 59 56 62 64 64 65
68 67 68 68 68 68 67 67 66 65 65 64 64 65 66 66 66 66 67 67 68 67 68 67 67 68 68 68 68 67 67 67 67 67 68 67 66 65 65 66 66 65 65 65 64 62 62 62 63 64 65 64 63 62 62 60 57 57 57 60 62 63
67 66 66 67 67 67 66 66 66 67 67 66 66 66 67 66 66 66 66 67 68 67 68 68 68 68 69 69 68 67 67 67 67 67 67 67 66 66 66 66 66 66 66 64 64 63 62 63 62 62 64 63 63 63 63 62 61 60 57 57 59 62
65 65 66 67 68 68 68 68 67 67 67 68 68 68 67 66 66 66 66 65 65 66 67 67 68 68 67 68 67 67 67 67 66 66 66 65 66 66 66 65 65 65 65 64 64 64 63 63 63 63 62 62 63 62 63 63 62 61 57 56 56 59
63 63 64 66 67 67 68 68 66 66 66 66 68 68 68 65 64 65 65 65 65 64 64 64 65 65 65 66 66 66 66 67 66 65 65 65 65 66 66 65 65 65 65 64 64 64 63 63 64 64 63 63 62 63 62 62 61 60 60 59 56 58
62 62 63 63 64 65 66 67 66 66 66 65 66 66 66 66 66 66 65 64 64 64 64 64 64 64 64 64 64 66 65 64 64 65 65 65 65 65 66 66 66 65 65 64 64 64 64 64 64 64 64 63 63 63 63 62 62 61 60 57 57 58
61 62 62 63 62 62 62 63 64 65 65 64 64 64 65 65 65 66 66 65 63 63 63 63 63 62 63 64 64 64 64 64 64 63 64 64 65 66 65 65 65 65 65 65 65 65 65 64 64 64 64 64 64 64 64 63 63 63 61 60 60 59
60 61 62 62 62 61 61 61 62 62 62 63 62 63 65 65 65 65 66 65 64 63 63 63 63 63 63 63 63 63 63 62 63 63 64 64 65 66 64 64 64 64 64 64 65 65 64 64 65 63 64 65 65 64 64 63 63 62 62 61 60 58
59 60 61 61 61 61 61 62 63 63 63 63 61 63 64 64 65 65 66 65 65 65 63 62 63 62 63 63 63 63 64 64 64 64 65 65 65 64 64 63 64 64 64 65 64 63 64 64 64 64 64 63 64 65 64 64 63 62 62 61 59 59
58 59 59 60 61 60 60 62 64 64 63 63 63 63 63 63 64 64 64 65 65 65 63 63 62 63 64 63 64 64 64 64 64 64 65 65 65 64 64 63 64 64 63 64 65 64 63 64 63 63 64 63 64 64 64 64 63 63 63 63 62 61
59 59 59 60 60 60 60 62 64 64 63 63 63 64 64 64 63 63 63 63 64 64 65 64 63 63 64 64 64 64 64 64 64 64 64 63 63 63 64 64 64 64 63 65 63 62 63 63 63 63 63 64 63 63 64 64 64 64 63 63 63 62
60 60 60 59 60 60 61 62 63 64 63 62 62 62 62 62 62 61 62 62 62 63 64 65 65 65 64 63 64 64 64 64 64 64 64 64 63 62 63 63 63 63 63 64 63 63 63 63 63 63 63 63 63 64 63 63 63 64 64 63 63 63

ECMWFFLT2_sfc_temp_093.txt.gz
Temp
69 69 69 69 70 70 73 75 74 75 75 75 75 75 74 75 75 75 75 75 74 71 69 70 71 70 74 71 73 74 74 74 74 74 74 74 73 73 73 73 72 72 72 72 72 73 73 73 73 73 73 73 73 67 65 65 65 65 65 67 67 64
69 69 69 70 71 71 72 73 70 70 71 73 74 75 73 71 75 70 75 72 69 71 68 67 68 73 69 72 72 74 74 74 74 74 74 73 73 73 73 72 72 72 72 71 72 65 64 69 73 73 73 72 66 64 65 65 65 65 65 64 66 68
69 69 69 70 71 71 70 70 69 70 72 73 73 72 70 71 68 69 69 68 68 67 67 67 68 71 70 73 72 74 74 74 74 74 74 74 73 73 72 72 72 72 71 70 64 62 62 61 64 73 73 68 65 64 65 65 64 65 65 64 65 72
69 69 69 69 70 70 69 69 69 70 69 69 70 70 69 68 68 67 68 67 66 67 65 65 72 74 74 69 70 74 74 74 74 74 74 72 74 73 73 73 72 71 67 65 63 62 63 63 62 62 64 64 64 65 65 65 64 64 64 67 65 73
69 68 68 69 69 69 69 68 68 68 68 68 68 68 67 66 66 66 66 66 66 66 65 65 66 66 66 66 67 67 69 67 67 67 72 65 66 68 68 65 64 64 62 64 63 61 63 63 64 64 65 65 65 65 65 65 64 64 64 64 66 73
68 68 69 69 68 70 70 68 67 68 68 67 68 66 66 66 65 66 66 66 67 65 65 64 64 65 66 65 66 66 66 65 65 65 67 64 64 64 64 64 63 63 64 63 63 63 63 65 64 64 65 65 66 65 65 64 64 64 64 64 67 73
68 68 68 68 69 69 68 68 67 67 67 67 66 66 65 65 65 66 66 67 65 64 64 64 64 65 65 65 65 65 65 65 64 64 65 64 64 64 64 64 63 62 62 63 64 64 64 65 64 65 64 66 66 65 64 64 64 63 63 64 68 74
68 68 68 68 68 67 67 67 68 70 67 68 67 66 65 65 66 66 66 66 67 65 64 64 65 65 65 65 65 65 64 64 64 65 65 65 65 64 64 63 63 63 64 64 65 65 64 66 65 65 65 66 66 65 64 64 64 64 64 64 65 72
68 68 67 67 67 66 67 67 68 67 66 70 65 66 66 66 65 66 66 66 67 64 64 64 64 64 65 65 65 65 65 65 65 65 64 65 65 64 64 64 64 64 65 65 64 64 65 67 66 65 65 65 66 64 64 64 64 64 63 63 64 69
67 67 67 67 66 66 66 67 66 66 66 69 65 65 66 65 65 66 65 66 67 65 64 64 64 64 64 64 64 65 65 64 65 64 64 65 65 64 64 64 64 65 67 66 66 65 67 66 67 67 65 65 65 65 64 64 64 64 64 64 64 67
67 69 66 66 65 65 66 65 66 66 66 66 66 66 65 65 65 65 65 66 66 67 65 65 64 64 64 64 64 64 65 65 64 65 65 65 64 65 64 65 66 66 67 67 67 66 67 66 66 66 65 66 66 65 64 64 64 64 64 64 63 64
66 67 66 65 66 65 65 66 66 66 66 65 66 65 64 65 66 65 65 65 66 65 66 64 64 64 64 64 64 64 65 65 65 65 65 65 64 65 65 66 66 67 68 68 67 66 67 67 65 65 65 64 65 64 64 64 64 64 64 63 63 64
66 66 65 65 66 65 65 66 66 66 66 67 66 65 64 65 64 65 65 65 65 65 65 65 64 65 67 67 66 64 64 65 66 66 65 65 65 64 65 64 64 66 67 67 67 65 67 63 63 64 65 64 64 64 65 64 64 64 64 64 63 63
68 68 67 67 68 67 66 66 66 65 67 66 65 65 66 64 65 66 65 65 66 66 66 65 64 64 64 66 67 66 65 65 66 65 65 65 65 64 64 64 64 64 67 67 66 63 62 62 63 63 63 64 64 64 64 64 64 64 64 64 63 63
69 68 69 68 68 67 68 68 67 65 66 67 67 65 65 64 65 66 66 66 66 67 68 67 65 65 64 65 65 66 65 65 65 65 65 65 65 64 64 64 64 64 64 65 65 64 62 62 62 63 63 63 63 63 63 63 63 63 63 63 63 63
68 67 67 68 66 66 68 67 66 68 66 67 67 65 64 64 65 65 66 66 66 67 68 68 68 67 66 66 66 66 65 65 65 64 64 64 64 64 63 63 63 64 64 64 64 62 61 62 61 62 62 63 63 63 62 62 63 63 63 63 63 63
67 66 65 66 65 65 66 65 65 66 66 66 65 64 64 63 64 65 65 67 67 66 66 67 67 68 67 67 67 66 65 64 64 64 63 63 64 64 63 64 62 63 63 62 63 62 61 61 61 62 62 62 62 63 62 62 63 63 63 63 63 63
66 65 66 66 65 65 66 66 66 66 68 66 65 64 64 64 64 64 64 65 66 66 66 65 65 67 67 68 67 66 65 64 64 64 64 63 62 62 63 63 63 63 63 64 63 62 60 60 61 61 62 62 62 62 62 62 63 65 63 63 63 63
66 65 65 65 66 66 66 66 65 65 64 64 63 63 64 64 64 64 64 65 64 65 66 65 65 66 67 67 66 66 65 64 64 65 65 65 64 64 63 62 62 63 63 64 63 63 62 61 60 60 62 62 63 62 62 62 63 63 63 63 64 65
64 65 64 65 65 64 63 64 63 63 63 64 63 64 64 64 65 64 65 65 64 64 65 65 64 64 66 67 66 66 65 64 63 65 65 64 64 64 63 62 62 62 62 62 63 62 61 61 60 61 62 62 62 62 62 62 61 62 63 63 63 64
64 64 64 64 63 63 62 62 62 62 62 62 63 64 65 65 64 64 64 64 65 65 64 64 65 64 65 67 67 67 66 66 65 65 65 64 64 64 63 63 62 62 61 61 61 61 61 62 60 59 60 60 61 61 63 63 62 62 62 63 62 62
64 65 65 64 64 64 62 62 61 61 62 63 63 63 65 64 65 65 64 64 64 64 63 64 65 65 66 66 66 66 66 66 66 66 65 65 65 65 64 64 63 62 61 61 60 61 62 63 59 58 58 57 58 60 61 62 62 62 63 63 62 63
65 65 64 65 64 63 63 63 63 63 62 63 63 65 65 65 65 64 63 63 64 63 63 63 63 64 66 66 66 66 66 67 67 66 66 65 64 63 63 63 63 62 61 61 60 61 62 63 61 60 59 58 57 56 59 59 61 62 63 63 62 62
65 65 64 64 65 63 64 64 63 63 63 63 63 65 64 64 64 64 64 63 63 63 63 63 63 63 63 64 65 66 66 66 66 67 66 65 65 64 63 63 63 63 63 61 60 60 62 62 62 59 55 56 57 56 54 57 59 61 62 63 62 62
63 64 64 64 63 63 64 63 64 64 64 63 62 63 64 64 64 65 66 64 65 64 64 64 64 63 63 63 62 63 64 65 66 66 66 65 65 65 65 64 64 63 63 63 62 61 61 62 62 62 60 57 55 54 55 56 58 58 60 61 62 63
62 63 63 63 63 63 63 62 62 61 61 61 61 62 62 62 63 63 63 64 65 64 65 65 66 66 65 65 65 64 63 64 65 65 65 65 66 65 65 64 64 64 63 64 63 62 61 63 63 63 62 61 59 56 56 57 59 55 58 61 62 63
62 64 65 65 65 65 62 62 61 61 60 60 60 61 63 64 64 64 64 65 65 65 65 66 66 66 66 66 65 65 65 65 65 65 65 64 64 64 65 65 66 65 64 64 63 61 61 62 61 61 62 62 61 61 60 58 56 56 55 58 61 61
63 64 65 65 66 65 62 61 62 62 62 60 61 62 64 64 65 65 64 64 65 65 66 66 66 65 66 66 65 64 64 64 64 64 64 63 63 63 64 65 66 66 65 64 63 62 61 61 60 61 62 61 61 62 61 60 60 58 56 55 57 61
61 62 64 65 65 65 65 63 62 62 62 63 63 63 64 65 64 64 64 64 65 65 65 66 65 65 65 65 65 64 63 63 63 63 65 64 64 63 63 63 64 64 64 64 64 63 62 61 61 60 60 59 60 60 61 61 61 60 57 55 56 58
60 60 63 64 64 64 64 63 62 62 61 61 63 63 63 62 62 62 62 62 63 63 63 64 65 65 64 65 64 64 62 62 62 63 64 63 63 62 62 62 62 63 64 64 64 63 62 62 62 61 61 61 60 59 59 59 60 59 59 58 56 57
60 61 61 62 63 62 63 63 62 62 61 61 61 62 61 60 61 61 61 61 61 62 62 62 63 63 63 64 64 64 62 62 62 63 63 62 62 62 61 62 63 63 63 64 64 64 62 62 62 61 62 61 60 60 59 58 58 59 59 57 57 57
59 59 59 59 59 60 61 61 61 61 61 61 61 60 60 59 60 60 60 60 60 61 60 61 62 62 62 64 63 62 62 62 61 61 61 62 62 63 63 63 64 63 63 64 64 63 63 62 62 61 61 61 61 61 61 60 60 60 59 59 58 58
57 56 56 56 56 57 58 59 59 59 59 60 59 59 59 59 60 60 60 60 60 59 60 60 60 61 61 62 62 62 62 61 61 61 62 62 63 64 63 63 63 63 63 63 63 63 62 62 62 61 61 62 62 61 61 61 61 61 61 60 59 57
55 55 55 56 56 56 56 56 57 57 56 57 56 57 57 59 60 60 60 60 60 59 59 59 59 60 61 62 62 62 62 62 62 62 62 62 63 64 63 63 63 62 63 63 63 62 62 62 62 62 62 62 61 61 61 62 62 61 60 59 58 58
54 54 55 54 55 55 55 56 56 56 56 57 57 56 57 59 59 59 60 60 60 60 59 60 60 61 63 62 62 62 62 62 62 62 62 62 63 64 64 63 63 63 63 63 62 62 62 62 62 62 62 62 62 62 62 62 62 62 62 61 60 60
53 53 54 55 54 54 54 55 55 55 55 56 57 56 56 56 56 57 58 58 58 58 59 59 60 61 61 62 61 61 61 62 62 62 62 61 62 62 63 62 62 62 62 63 62 62 62 62 62 62 62 62 62 61 62 62 62 62 62 62 62 61
53 53 54 54 54 54 54 55 55 55 54 54 54 54 53 54 54 55 55 55 55 55 57 58 58 59 59 60 60 60 60 60 61 59 57 57 57 58 59 60 61 61 61 62 62 62 62 62 62 62 62 62 61 62 62 62 62 62 62 62 62 62

ECMWFFLT2_sfc_temp_096.txt.gz
Temp
69 69 69 69 69 69 72 74 74 75 75 75 74 75 74 75 75 75 74 74 72 70 69 70 71 71 74 72 73 74 74 74 74 74 74 73 73 72 73 72 72 72 72 72 72 73 73 73 74 73 74 74 73 68 66 67 67 67 68 69 69 68
68 68 69 69 69 70 71 73 69 70 70 73 74 75 73 72 74 70 73 71 70 71 68 68 70 72 70 72 72 74 74 74 74 74 73 73 73 72 72 72 72 72 71 69 67 64 68 73 74 73 73 71 68 66 66 67 67 67 68 68 68 69
68 68 68 68 69 68 68 68 67 68 70 73 73 72 70 70 68 68 69 69 69 67 67 68 68 70 70 72 72 74 74 74 74 74 73 73 73 73 72 72 72 71 69 67 64 63 64 65 69 74 73 69 66 66 66 66 67 67 67 68 68 71
68 68 68 68 68 68 67 67 67 67 68 69 69 69 68 68 68 67 67 67 67 67 66 65 70 72 72 69 68 71 74 73 73 73 74 71 72 72 73 71 71 69 67 65 64 65 65 65 65 66 66 66 66 66 66 66 67 67 66 69 67 71
69 69 69 69 70 68 67 67 67 67 68 69 68 67 67 66 66 66 66 66 66 66 65 64 64 66 68 66 65 66 67 67 66 66 70 65 65 66 66 64 65 66 64 64 64 64 65 66 66 66 66 66 66 66 66 67 67 67 67 68 68 71
69 69 69 69 69 70 68 66 67 67 68 69 68 67 66 66 65 66 65 66 67 64 64 64 63 64 65 65 65 65 65 65 65 66 68 66 65 65 65 65 65 64 65 65 65 63 67 67 66 66 66 66 66 66 66 66 67 67 67 67 69 72
68 69 69 70 69 69 67 66 66 67 68 68 67 66 67 65 65 65 65 67 66 63 63 63 63 64 64 65 66 65 65 65 65 65 67 66 65 65 65 66 65 64 64 66 65 65 65 66 66 67 66 67 67 67 66 66 66 66 66 67 69 72
68 69 69 69 69 69 67 66 68 71 68 69 67 66 65 65 66 65 66 66 66 64 64 64 65 64 64 64 65 65 65 65 65 65 65 66 66 65 65 66 66 65 65 65 65 66 66 67 66 67 67 67 66 66 66 66 66 66 66 66 68 71
68 69 68 69 68 68 68 67 67 68 67 70 65 65 65 65 66 66 66 67 67 64 64 64 64 65 64 64 65 65 65 65 65 65 65 66 65 64 65 65 66 66 65 65 65 66 66 67 66 66 67 67 67 66 65 65 66 66 66 66 67 69
68 68 68 68 67 67 67 67 67 66 66 69 65 65 66 65 65 66 66 66 67 65 64 64 64 64 64 65 65 65 65 65 65 65 65 65 65 65 65 65 65 66 67 66 67 68 68 66 67 67 66 67 66 67 66 66 66 66 66 66 66 68
68 69 68 67 67 67 67 67 67 65 65 65 66 66 65 64 65 65 65 66 66 67 65 64 64 64 64 64 64 65 65 65 65 65 65 66 65 66 65 65 66 67 67 67 68 68 68 68 66 68 67 68 67 66 66 66 66 66 66 66 66 67
67 68 68 67 67 66 66 67 66 65 65 65 66 65 65 65 66 65 66 65 66 66 67 65 65 64 65 64 64 64 65 65 66 66 66 66 66 65 65 66 66 67 67 68 68 68 68 68 67 66 66 67 66 66 66 66 66 66 66 66 66 66
67 68 66 67 67 66 65 66 66 65 66 68 66 65 64 65 65 65 66 66 66 66 67 66 65 65 67 67 66 66 66 66 66 66 66 66 66 65 65 65 65 66 66 67 67 67 68 65 66 65 65 65 65 65 66 66 66 66 66 66 66 66
68 68 67 68 68 67 66 66 65 65 67 67 66 65 65 65 66 66 66 66 67 67 67 67 66 65 65 66 67 67 66 66 66 66 66 66 66 65 65 65 65 66 67 66 66 66 66 66 65 65 65 65 65 65 65 66 66 66 66 66 66 66
68 68 69 67 67 67 68 68 68 66 67 68 67 66 65 65 65 66 66 67 67 67 68 68 67 66 65 65 65 66 66 66 66 66 65 65 66 65 64 64 64 66 65 65 65 65 66 65 65 66 66 65 65 65 65 65 64 65 66 66 66 66
68 68 68 68 67 67 68 68 68 69 67 68 68 67 66 65 65 66 66 67 67 67 68 68 68 68 67 67 66 66 66 66 66 66 65 65 65 65 65 64 64 64 64 65 64 64 64 64 64 65 64 64 64 64 63 64 64 64 65 65 66 66
67 67 67 67 67 67 67 67 67 68 68 68 67 66 65 64 64 65 66 66 67 67 68 68 68 68 67 68 68 67 67 66 65 65 65 65 65 65 64 64 64 64 64 63 64 64 63 63 63 63 63 63 64 64 63 63 64 64 64 64 65 65
67 67 67 67 67 67 67 67 67 67 69 67 66 66 65 65 65 65 64 65 66 67 68 67 67 68 68 68 68 67 66 66 65 65 65 65 65 65 64 64 64 64 63 64 63 63 63 64 63 63 63 63 63 64 64 64 63 65 63 63 64 65
67 66 66 67 68 67 67 67 66 66 67 66 66 65 65 64 65 64 64 64 65 65 67 67 67 67 67 67 67 67 66 66 65 66 65 65 65 64 64 64 63 64 64 64 63 64 64 63 63 62 62 63 64 64 63 63 64 64 63 64 64 66
65 66 67 67 67 65 65 65 65 63 63 63 63 65 65 64 64 64 65 65 64 64 65 66 66 66 67 67 67 66 66 66 65 66 65 65 64 64 64 63 64 64 64 64 65 64 63 63 62 61 62 63 63 63 63 63 63 63 64 64 65 66
64 65 65 65 65 64 63 63 63 62 62 62 63 64 64 64 64 64 64 64 65 64 64 65 66 66 66 67 67 67 67 66 66 66 65 65 66 65 65 64 64 64 64 63 62 62 62 63 62 61 61 61 62 63 63 64 63 62 63 64 65 65
65 65 65 65 65 64 63 64 62 62 62 62 63 63 64 65 65 65 65 64 64 65 65 65 66 66 67 67 67 67 67 67 67 66 66 66 66 66 66 65 64 63 64 63 62 62 63 63 60 60 60 59 60 61 62 63 63 63 63 63 64 65
64 64 64 65 63 63 64 64 64 63 63 62 63 64 64 65 66 65 64 64 65 65 65 65 65 66 66 67 67 67 67 67 67 67 66 66 66 65 65 64 64 63 62 63 63 63 63 63 61 60 60 59 58 58 60 60 62 62 63 63 63 63
63 63 63 64 65 65 66 65 65 64 64 65 65 66 65 65 65 65 64 64 65 64 65 65 66 66 66 66 66 66 67 66 67 67 66 65 65 65 65 64 64 64 63 62 62 62 64 63 63 61 58 58 58 57 55 57 58 61 63 63 63 63
62 62 62 62 63 63 64 63 63 63 64 63 64 65 65 64 64 64 65 65 65 65 65 66 66 66 66 65 65 66 65 66 66 66 66 65 65 65 66 65 65 64 63 62 61 62 63 63 63 64 62 58 57 55 56 58 58 59 60 61 62 63
61 62 62 62 63 63 62 60 60 60 60 60 60 61 61 62 63 63 63 65 66 66 66 67 67 67 66 66 65 65 65 65 65 65 65 65 65 65 65 65 65 64 63 64 63 62 62 63 63 63 64 64 63 59 58 58 59 56 59 61 62 62
61 61 62 63 64 63 61 60 60 60 60 60 59 61 63 64 64 64 65 64 65 66 66 66 66 67 66 66 65 64 64 64 64 63 65 65 64 64 64 65 65 65 64 64 64 62 62 62 62 63 63 63 63 62 61 58 56 59 56 59 61 61
61 62 63 64 64 64 62 62 61 61 62 61 61 61 62 63 64 64 63 63 64 64 65 65 65 65 66 66 66 65 64 63 63 63 64 64 64 64 64 65 65 65 65 64 64 62 62 63 61 61 62 62 62 63 63 62 61 59 57 56 58 61
59 60 61 63 63 63 63 62 62 62 61 62 63 62 63 63 62 63 62 62 63 63 64 64 64 64 65 65 65 64 64 63 63 63 64 64 64 64 64 64 63 63 63 64 64 64 63 62 62 62 61 61 61 61 61 61 61 61 57 56 57 58
57 58 59 60 61 62 62 62 61 61 60 60 61 62 62 60 60 60 60 61 61 61 61 62 63 64 64 64 64 64 63 63 63 63 64 64 64 64 63 63 63 63 64 63 64 64 63 63 63 63 63 62 60 60 60 59 59 59 59 59 56 58
57 57 58 57 58 58 60 61 60 60 60 59 60 60 59 59 60 60 59 59 60 60 61 61 62 62 62 63 64 64 63 63 63 63 63 63 63 63 63 63 64 64 63 63 63 64 63 63 63 62 62 61 60 60 59 58 59 59 59 58 57 57
57 56 56 56 56 56 57 57 58 59 59 59 59 59 58 58 58 58 59 58 58 58 59 60 61 60 61 62 63 62 63 63 63 63 63 63 63 64 64 64 64 63 63 64 64 64 63 63 63 63 62 62 62 62 61 60 61 60 59 59 59 58
55 55 55 55 55 55 55 56 56 57 57 58 57 57 57 57 57 57 57 57 57 57 58 58 59 59 59 60 61 61 61 61 61 61 60 60 61 63 63 63 63 63 63 63 63 63 62 63 63 62 62 63 62 62 61 62 62 61 61 61 60 58
54 56 56 54 54 54 54 54 54 55 55 55 55 55 55 54 55 55 56 55 55 56 55 55 57 57 58 59 59 60 61 60 58 58 58 58 58 58 59 60 62 62 63 63 63 63 63 63 62 63 63 62 62 62 62 62 62 61 60 60 59 58
55 55 55 53 53 53 53 54 54 54 54 55 54 54 54 54 53 53 54 53 54 54 54 55 55 56 58 57 58 59 59 57 57 56 56 56 56 56 56 57 57 58 60 61 60 62 62 62 62 62 62 62 62 62 62 62 62 62 62 61 60 60
54 53 53 54 53 53 53 54 54 53 54 55 55 54 53 53 53 53 52 52 52 52 54 54 55 55 55 56 56 57 58 57 56 55 55 55 55 54 55 54 55 55 55 57 56 57 59 61 62 63 62 63 62 62 63 63 63 62 62 62 62 61
53 53 53 53 53 53 53 53 53 53 53 53 53 52 52 52 52 53 52 52 52 52 53 53 53 54 53 54 55 55 56 56 55 55 54 53 53 52 52 53 52 53 54 54 54 54 55 57 59 61 62 62 62 62 62 63 63 63 63 62 62 62

ECMWFFLT2_sfc_temp_102.txt.gz
Temp
82 82 82 82 81 81 79 76 76 76 75 75 75 75 75 75 75 75 76 76 76 80 80 79 79 81 76 81 75 75 75 75 74 74 74 74 74 73 74 73 73 73 73 74 74 73 74 73 73 73 74 73 74 79 86 85 87 87 89 88 86 87
82 82 82 82 81 81 80 80 82 80 80 77 77 77 78 80 79 80 76 78 80 82 82 81 81 80 80 79 78 74 75 75 74 74 73 73 73 73 73 73 73 72 72 73 73 81 78 75 73 73 74 73 78 87 84 86 85 88 87 87 88 79
81 81 81 82 82 82 82 83 83 83 81 78 80 81 83 83 82 83 83 84 82 83 83 84 81 80 80 75 77 75 74 74 74 74 74 74 73 72 72 72 71 72 72 71 78 86 85 84 81 74 74 78 85 86 86 84 86 87 88 87 88 73
81 81 83 83 83 82 83 83 84 84 83 82 82 83 83 83 84 83 82 82 82 82 82 82 78 76 77 81 78 74 74 74 73 73 72 75 73 74 72 70 71 71 74 81 88 87 89 88 86 83 83 84 87 86 85 85 87 87 87 86 88 72
82 82 82 82 82 83 82 83 84 84 84 84 84 83 83 82 82 82 82 83 83 82 82 84 83 83 85 84 84 82 80 81 82 83 76 84 84 83 78 84 81 79 85 86 88 87 87 87 86 86 85 85 86 86 86 86 87 88 87 86 82 72
81 81 82 83 82 81 81 82 82 83 83 83 84 83 83 83 82 81 83 83 82 81 81 82 82 83 83 83 84 85 85 84 84 84 83 85 85 84 85 86 85 85 85 86 86 87 86 85 86 86 87 85 85 85 86 87 88 86 87 86 81 72
81 81 80 82 82 82 83 82 82 82 81 82 83 82 83 83 82 82 81 81 80 81 81 82 81 81 81 82 82 83 83 83 84 85 84 86 83 83 85 84 85 84 85 85 86 87 86 86 86 88 86 87 85 86 85 87 87 86 86 86 81 72
80 80 80 81 81 82 82 81 81 81 82 81 82 82 82 82 81 82 81 81 81 82 81 81 80 80 82 82 81 81 81 82 82 84 85 85 84 85 85 84 83 84 85 86 87 86 87 88 85 84 85 85 85 85 85 86 87 86 86 85 85 75
80 80 81 81 81 82 81 81 80 81 80 79 82 82 82 82 82 83 82 82 81 80 82 81 80 81 82 80 81 81 82 84 83 84 84 83 83 83 84 84 84 84 85 85 86 85 87 87 84 83 83 84 83 84 84 84 85 87 87 87 86 82
80 80 80 80 81 81 80 79 80 81 80 80 80 80 80 81 81 82 82 82 81 79 79 80 80 81 81 79 80 81 81 81 81 83 83 82 82 83 83 85 84 84 87 85 86 86 85 86 85 83 82 82 83 85 85 85 84 86 88 86 85 84
80 79 80 80 80 80 80 80 80 80 80 81 80 80 80 80 81 80 80 80 79 79 79 78 79 79 80 80 80 80 80 81 82 81 82 82 82 82 83 83 82 84 85 86 86 87 86 85 86 87 84 83 83 84 86 85 85 84 86 87 87 86
79 79 79 79 79 80 80 80 80 81 81 81 80 81 82 81 81 82 80 79 79 80 80 80 79 79 79 79 79 79 79 80 81 81 82 82 82 81 81 83 83 82 82 83 84 86 85 85 85 86 88 85 82 81 82 84 83 83 83 83 86 86
79 78 79 78 79 80 80 81 80 80 81 80 80 81 80 80 80 80 79 79 79 79 80 79 78 77 78 79 78 78 77 78 79 80 81 80 80 81 81 81 81 82 83 83 83 83 86 84 84 85 86 86 84 83 82 81 82 83 83 82 82 83
78 78 79 80 79 79 79 80 80 80 80 80 80 80 79 79 79 79 79 79 79 80 80 79 78 77 77 78 79 78 77 76 76 78 79 79 80 80 80 80 80 81 81 82 82 83 84 83 85 86 85 84 84 83 83 82 82 82 82 83 83 82
78 78 77 78 79 79 78 79 79 79 80 79 79 79 78 79 81 80 81 81 79 79 80 80 80 79 79 81 80 79 78 77 76 77 78 79 80 81 81 79 80 79 80 81 82 83 82 82 83 83 83 84 83 84 83 82 81 81 82 81 81 83
77 76 76 76 76 76 77 78 79 79 79 79 80 79 79 79 80 83 81 80 80 80 79 80 80 80 79 81 81 80 79 79 78 79 78 77 79 80 80 80 79 78 78 80 81 81 82 81 81 80 82 82 82 81 82 83 82 81 82 82 83 82
76 76 75 75 75 76 76 78 79 79 79 80 80 80 81 80 81 81 80 80 80 80 80 80 80 80 79 80 81 80 81 79 78 78 78 77 78 78 78 77 78 79 77 76 78 79 79 80 79 79 80 80 80 81 81 82 82 82 81 81 81 83
77 77 75 75 75 77 78 79 80 80 80 80 81 81 81 81 81 81 80 80 80 80 80 80 80 80 79 80 81 81 80 79 79 78 79 78 76 76 77 77 76 77 77 75 77 77 77 79 79 79 79 79 79 81 81 81 81 80 81 80 80 81
75 75 75 76 76 78 78 79 80 79 78 79 81 81 81 82 81 81 80 80 80 79 80 80 80 80 79 80 81 80 79 78 79 78 78 79 78 77 76 76 75 76 76 78 76 76 76 76 76 76 78 78 78 77 79 81 81 82 81 80 80 81
75 76 76 77 79 79 80 80 78 79 79 80 81 80 80 81 81 80 80 80 80 80 81 80 80 80 79 78 79 79 78 79 79 78 78 77 77 76 75 75 75 75 75 77 78 78 78 77 76 75 75 76 76 77 78 78 78 79 79 80 80 81
75 77 78 78 78 79 78 78 78 79 78 79 79 79 79 79 80 80 80 80 80 78 78 78 79 79 79 78 79 79 79 79 80 79 78 77 76 77 77 76 75 75 74 74 76 78 77 77 75 73 74 74 75 77 78 77 77 78 78 80 81 81
76 76 76 77 77 77 77 79 78 78 78 78 78 77 77 78 77 77 78 78 78 78 77 78 78 79 78 78 78 79 79 79 79 79 78 78 77 76 75 74 75 74 75 74 74 76 77 75 73 72 69 71 73 75 76 77 77 77 77 79 79 78
76 76 75 76 77 77 77 77 78 77 78 78 79 78 78 76 75 75 76 77 78 77 77 78 79 79 79 78 78 77 78 79 79 78 78 77 77 75 75 74 74 73 72 74 74 77 76 76 71 72 71 69 70 71 74 75 76 76 78 78 79 77
76 76 76 76 77 77 77 78 78 77 78 77 74 74 75 74 73 74 74 77 77 77 78 79 80 80 78 78 77 77 78 78 78 78 76 75 75 75 74 74 74 74 72 69 71 73 76 75 75 71 67 69 69 69 66 68 70 73 77 78 77 77
76 76 77 77 78 78 77 77 77 75 75 74 74 73 72 71 72 73 74 75 75 78 78 78 79 79 79 77 77 77 77 77 76 77 76 75 74 74 74 75 74 72 72 71 69 71 72 72 73 74 70 66 67 67 67 70 71 73 78 78 78 77
76 76 76 76 77 77 75 74 73 71 69 68 68 69 68 69 71 72 72 74 75 76 76 76 78 79 78 78 75 75 75 76 76 75 76 74 74 73 73 73 75 75 73 73 72 71 71 74 73 71 70 70 68 64 65 69 67 65 76 77 77 78
75 75 76 76 77 76 75 75 74 72 71 70 69 69 71 72 73 73 73 72 72 73 74 74 74 76 76 75 75 74 74 74 74 74 75 72 72 72 73 73 75 74 74 75 73 71 71 72 72 72 72 70 68 70 72 66 63 66 65 74 77 77
74 73 74 75 76 76 74 73 73 73 72 71 71 69 70 71 72 72 71 71 72 71 72 73 73 74 75 75 75 74 74 73 72 73 73 71 71 73 73 74 74 75 75 75 74 72 71 73 70 71 73 70 68 69 70 68 65 64 64 62 69 76
73 73 74 74 74 75 75 74 73 72 71 72 71 71 72 72 70 71 70 70 70 71 71 71 73 72 73 74 73 71 72 72 72 72 73 73 73 73 71 70 70 72 72 72 73 73 72 72 72 71 72 72 71 70 70 69 68 68 64 64 66 69
72 73 74 74 74 73 73 73 72 71 70 70 71 71 71 69 69 70 69 69 69 69 70 70 71 72 72 72 70 69 71 71 71 72 73 73 73 72 71 70 71 71 70 69 71 71 70 72 72 72 71 71 70 70 69 69 67 67 68 65 62 64
70 72 72 72 73 72 72 72 71 70 69 69 69 69 68 67 68 69 68 68 69 69 69 69 70 69 69 69 69 71 70 70 71 71 71 71 71 71 70 70 70 70 69 66 67 69 70 70 70 71 71 70 70 70 68 67 68 69 67 65 63 64
70 70 71 71 72 71 70 69 69 68 67 68 68 67 66 65 66 66 67 67 69 69 69 69 68 68 66 67 66 68 69 69 69 68 67 69 68 68 69 70 70 69 68 67 67 67 68 69 68 69 70 70 70 71 71 70 70 69 67 66 65 64
68 68 69 69 69 69 69 68 67 67 67 67 67 67 66 66 67 67 67 67 67 67 67 66 65 65 65 65 66 66 67 67 67 67 67 66 66 66 66 68 69 67 66 65 65 65 67 66 66 67 67 68 68 69 69 69 69 70 70 70 69 66
67 68 69 69 69 67 66 67 67 67 67 68 66 66 66 67 67 67 67 66 66 65 64 63 63 62 63 64 64 64 64 65 66 66 67 68 67 66 67 67 67 66 65 66 66 65 66 66 67 66 65 64 65 66 68 71 69 66 66 68 66 64
67 67 68 68 67 66 66 66 66 67 67 67 66 66 66 66 65 65 65 64 64 65 63 63 62 62 63 63 63 62 63 63 65 64 65 64 64 65 64 66 66 65 65 65 64 64 65 64 64 64 63 64 64 64 66 68 68 67 68 66 66 68
68 67 66 66 66 65 65 65 65 64 64 65 65 65 64 64 64 64 64 64 62 62 62 62 61 61 61 62 61 62 64 64 64 64 64 64 64 64 63 63 63 64 63 63 62 63 63 63 62 62 63 64 64 65 67 67 67 68 69 68 66 67
67 68 67 66 65 66 65 64 63 63 63 63 62 62 61 61 63 64 64 63 62 62 61 61 60 61 61 62 63 64 64 63 63 63 63 63 63 63 63 63 62 62 61 62 62 63 63 62 62 63 63 62 64 66 67 66 66 67 67 68 69 69

ECMWFFLT2_sfc_temp_105.txt.gz
Temp
84 83 82 82 81 81 79 76 77 76 75 75 75 75 75 75 76 76 76 76 76 80 80 79 78 81 76 79 75 74 75 75 74 74 74 74 74 74 74 74 74 73 74 75 74 74 74 74 73 73 74 74 74 78 83 88 89 89 91 89 87 83
84 81 82 81 82 81 80 80 81 79 79 77 77 76 77 80 79 80 77 78 81 80 80 80 81 80 80 78 78 75 74 74 74 74 74 74 74 74 74 74 73 74 73 73 73 79 78 75 73 74 74 74 78 82 87 87 87 90 90 90 85 78
83 83 82 82 81 82 82 83 83 82 81 79 80 80 81 81 82 82 82 82 79 83 84 83 82 82 81 78 78 75 75 74 74 74 74 74 74 73 73 73 73 74 74 73 77 82 85 84 80 74 75 78 81 84 88 87 87 88 90 89 84 75
84 84 84 83 84 82 83 84 85 83 82 81 81 83 83 83 83 84 83 82 83 84 84 82 80 80 80 80 78 75 75 74 75 74 74 75 74 74 73 73 73 74 75 80 83 85 89 88 86 81 81 83 85 88 86 87 89 89 89 90 85 74
84 84 84 84 83 84 85 85 86 86 83 83 83 84 84 84 83 84 84 84 85 84 84 85 84 83 82 83 82 80 78 79 80 80 75 81 80 81 77 82 81 78 83 86 87 88 89 89 86 85 84 85 87 88 88 88 89 90 89 87 80 73
84 85 85 85 84 85 84 85 85 86 86 85 84 84 84 83 83 84 85 85 83 83 84 84 84 84 85 85 85 84 83 83 84 84 81 83 86 84 82 85 85 84 85 87 88 88 89 88 88 87 88 86 87 87 87 89 90 88 89 87 79 74
83 84 84 85 85 84 86 86 85 86 84 85 86 84 85 85 84 84 84 84 82 83 84 84 83 84 85 84 85 86 87 87 86 86 86 87 85 85 86 87 87 86 88 88 89 89 89 88 87 90 89 89 88 88 87 88 89 89 88 88 79 74
83 83 83 84 83 85 85 84 84 83 83 85 86 86 86 86 84 84 83 83 83 85 84 82 82 82 82 84 82 83 84 85 85 86 86 86 86 84 86 87 85 86 87 88 89 88 89 90 88 86 88 88 88 87 87 88 88 88 88 87 83 75
83 82 83 83 83 85 84 84 83 84 83 83 84 85 85 83 83 84 83 83 83 81 82 82 81 80 78 76 79 77 75 75 77 78 81 79 82 84 85 86 86 84 86 87 88 87 89 90 88 86 86 87 87 87 85 85 86 88 88 87 87 79
82 82 83 83 84 83 83 83 83 83 83 82 84 84 83 84 85 84 82 82 81 80 80 79 77 76 74 77 76 77 78 78 80 78 79 77 80 82 78 83 82 85 88 87 88 88 88 88 90 88 86 85 84 85 85 85 85 85 87 87 86 81
83 83 84 83 84 82 82 82 83 83 83 83 82 82 83 83 83 82 81 80 81 80 78 79 79 77 78 74 75 75 75 77 78 80 82 80 82 81 79 75 79 78 84 82 82 84 89 87 88 90 87 85 84 84 84 84 84 85 86 86 87 84
82 81 82 82 82 82 82 82 82 82 82 82 81 81 81 81 81 81 79 80 80 79 78 77 78 78 79 80 77 79 81 81 81 80 82 80 79 77 78 79 75 77 79 81 83 86 87 87 87 89 90 87 85 84 84 85 84 83 84 84 84 85
81 81 82 81 82 82 82 83 82 82 83 80 78 78 78 81 80 78 78 79 77 80 81 78 78 81 82 83 82 81 81 82 82 82 82 82 81 81 82 80 78 79 78 79 82 84 86 84 85 86 87 88 86 84 84 85 85 85 85 85 85 85
81 81 81 82 81 82 82 82 82 81 80 80 79 76 77 74 78 78 76 81 80 82 81 82 82 80 82 82 81 80 81 82 82 81 82 81 81 78 80 81 80 82 78 78 76 78 80 80 85 86 85 86 85 85 84 85 84 84 84 85 85 85
80 80 81 81 81 80 79 80 80 74 76 75 75 75 73 75 77 76 78 80 81 82 82 82 83 81 81 83 81 80 81 82 82 81 82 82 80 81 80 80 81 80 79 81 81 81 76 75 74 76 76 79 81 85 84 84 84 83 83 83 83 85
79 79 79 78 77 75 78 77 72 75 75 75 75 74 73 73 77 83 83 82 82 82 82 82 83 82 80 82 83 82 82 82 81 81 81 81 80 78 77 79 79 79 78 79 79 80 79 76 74 72 73 76 77 80 78 80 84 83 83 82 81 84
75 76 76 75 73 73 73 74 77 76 74 73 72 72 81 82 81 82 83 83 81 81 83 82 82 82 81 82 84 83 84 81 82 81 80 79 80 80 79 79 78 79 78 76 79 79 79 79 79 77 77 76 74 75 71 73 76 75 78 81 80 82
72 74 73 72 72 72 72 75 77 76 76 75 74 82 83 82 75 78 80 79 81 82 82 82 82 82 81 82 83 83 82 82 82 81 80 79 79 81 81 79 77 79 78 77 77 77 78 78 79 77 78 78 77 75 74 73 71 75 74 76 79 80
69 71 72 70 70 74 77 75 74 72 72 75 80 77 77 76 79 78 78 80 81 81 82 82 82 82 81 82 83 82 82 81 82 81 80 80 80 80 78 78 77 77 79 80 79 78 77 77 77 78 77 77 76 76 75 76 76 73 74 76 74 79
68 71 71 71 73 73 73 73 70 71 72 70 74 74 77 77 80 78 77 78 81 80 82 82 82 81 81 81 81 81 80 81 81 80 80 78 77 75 76 77 77 77 77 78 80 79 78 77 76 75 75 76 77 77 77 77 76 76 74 71 74 75
68 69 70 70 70 70 69 70 68 72 72 74 74 74 75 77 74 75 81 82 82 81 81 81 81 81 80 80 80 81 80 80 81 80 75 73 75 77 77 77 77 77 76 76 76 79 78 77 74 73 75 75 76 78 78 77 77 76 75 73 72 71
67 67 68 69 69 71 71 75 73 74 75 75 74 74 73 77 79 81 80 80 81 81 81 81 81 81 80 80 79 79 77 75 75 76 75 76 75 74 75 77 77 76 78 75 74 77 77 76 73 70 70 72 74 77 77 75 75 75 73 74 74 74
68 67 67 69 68 71 71 75 78 77 77 77 78 77 77 79 80 79 78 80 80 80 81 81 82 81 79 79 78 77 75 76 77 77 76 76 75 74 73 74 76 75 71 76 76 78 77 75 72 74 73 70 70 70 73 73 75 75 75 74 75 74
68 68 71 71 72 74 74 76 78 77 77 77 76 77 78 78 78 78 78 79 80 80 80 80 82 82 80 78 78 77 77 77 76 77 77 76 75 74 73 73 75 74 73 71 75 76 77 77 75 72 68 70 70 70 68 68 71 76 76 75 74 73
66 68 68 69 72 72 75 77 77 77 78 77 78 78 77 76 77 77 77 77 77 79 79 79 80 80 80 78 77 77 76 77 77 77 78 77 76 74 75 76 75 73 74 72 72 74 77 77 76 76 71 68 69 69 69 70 71 73 78 75 75 74
67 70 70 75 77 78 77 76 75 75 73 72 72 72 72 72 74 74 74 76 77 79 79 78 78 78 79 78 76 76 76 76 76 75 75 75 75 75 75 75 75 75 74 74 73 73 74 77 76 75 75 73 71 67 66 70 68 65 76 77 78 79
74 72 75 77 78 77 76 76 75 74 73 72 70 71 74 74 73 75 75 74 74 75 77 76 76 77 77 77 76 75 75 75 76 75 75 75 74 74 75 74 75 74 73 74 73 71 72 74 76 77 76 75 73 74 72 67 65 68 66 73 76 76
75 76 76 77 77 78 76 76 75 73 73 73 72 71 73 74 75 75 74 73 73 72 74 75 75 76 76 74 74 73 74 73 74 75 75 74 72 72 73 74 74 73 73 73 72 69 69 73 72 73 75 74 74 74 74 72 70 66 65 64 70 77
74 75 75 76 76 76 75 75 75 74 73 73 74 73 74 74 73 73 71 72 71 72 72 73 74 74 73 73 73 73 73 73 73 72 73 72 71 71 71 71 71 70 70 70 70 70 69 69 70 70 71 71 72 73 74 74 73 73 68 65 66 70
73 74 74 74 74 75 75 75 73 73 72 71 72 73 72 71 70 70 69 70 70 70 71 71 71 72 71 71 71 72 72 72 70 70 69 71 71 71 70 70 70 70 70 69 71 69 68 69 71 71 72 71 69 69 70 71 71 71 71 70 65 67
73 73 73 73 73 73 73 73 72 72 71 70 69 69 69 68 69 70 69 69 70 70 71 71 71 70 69 70 70 71 70 70 71 70 71 71 70 70 70 70 70 70 69 68 69 69 69 70 69 69 70 70 69 68 67 66 67 68 66 65 64 66
72 72 73 72 72 71 72 71 71 70 69 69 69 68 67 67 68 68 69 69 70 70 70 70 68 68 67 68 68 67 68 68 68 68 68 70 70 69 69 70 70 69 68 68 69 68 68 68 67 68 68 68 67 68 69 68 69 69 67 66 65 64
70 71 71 71 70 70 69 69 69 69 69 69 68 68 68 68 69 69 68 69 70 69 68 66 65 65 64 65 65 65 65 66 67 68 68 68 69 69 68 70 70 68 68 68 67 66 67 66 65 65 65 67 68 69 68 69 69 69 69 69 67 65
69 70 70 70 69 68 68 68 69 68 68 68 68 68 68 68 68 68 68 67 67 67 65 64 63 62 64 65 65 65 66 67 68 69 69 69 68 68 68 69 69 67 67 67 67 66 67 65 65 65 65 65 66 66 67 69 69 68 67 66 65 64
69 69 69 68 67 66 66 67 67 68 68 68 68 67 66 67 66 66 65 65 65 65 64 64 63 63 63 64 65 67 67 67 68 67 67 67 67 68 67 68 68 66 66 66 66 67 67 66 65 65 64 65 65 67 68 69 68 66 67 65 64 64
69 68 68 67 66 65 65 65 65 65 66 67 67 66 65 66 66 66 64 64 63 63 63 63 63 63 64 66 67 67 68 67 67 67 67 67 66 66 66 66 66 66 65 66 65 66 67 66 65 64 65 65 65 66 67 68 67 67 68 67 67 66
68 67 66 66 65 65 65 64 63 64 64 64 64 63 63 64 65 65 64 63 63 63 63 63 63 65 65 67 67 67 66 66 66 66 66 66 66 66 66 66 65 65 64 65 65 66 66 65 65 65 65 64 64 65 66 66 66 66 66 67 67 66

ECMWFFLT2_sfc_temp_108.txt.gz
Temp
79 79 78 78 77 77 77 76 76 76 76 76 75 76 75 75 75 76 76 76 75 76 76 75 75 76 75 76 74 75 74 74 74 74 74 74 74 74 75 75 74 74 74 75 74 74 74 74 74 74 74 74 75 73 74 76 81 80 82 80 76 74
79 79 79 78 78 78 76 77 77 76 76 76 76 76 76 76 77 76 76 75 76 77 76 76 77 77 76 75 75 75 75 74 74 74 74 74 74 74 74 74 74 74 74 74 74 73 74 74 74 74 74 74 73 73 76 78 80 81 84 77 76 74
79 79 79 79 78 77 78 78 78 77 77 76 77 77 77 78 78 78 77 78 76 77 78 78 77 78 77 76 75 75 74 74 74 74 74 74 74 74 74 74 74 75 75 74 74 74 77 76 73 75 74 73 73 75 77 80 79 80 81 78 76 74
79 79 79 79 78 78 78 79 78 78 77 77 77 78 78 79 79 78 79 76 77 79 79 78 81 81 79 76 74 75 75 74 74 74 74 74 74 74 74 74 74 75 75 76 75 77 81 80 77 74 73 74 75 78 80 79 80 81 81 80 77 74
79 79 79 78 78 78 79 79 80 79 78 78 78 78 79 78 78 79 79 78 80 79 79 77 77 77 77 77 75 74 74 74 74 74 74 74 73 77 73 76 75 74 74 76 79 79 80 79 78 77 76 76 78 80 81 80 80 80 80 78 74 74
80 81 80 79 79 80 80 79 79 79 79 79 78 78 79 78 78 79 80 81 80 79 79 79 77 78 79 78 77 76 75 76 77 77 74 75 76 76 74 77 77 77 75 77 78 80 81 79 78 78 78 78 79 80 80 80 81 79 79 75 74 74
80 80 80 81 81 81 80 80 80 79 79 79 79 79 79 79 79 80 80 79 79 79 78 78 78 79 78 78 76 76 77 78 78 78 76 76 79 77 77 77 77 77 77 79 81 82 83 82 80 83 81 83 81 82 79 81 81 80 79 76 74 74
81 81 80 81 80 80 80 80 80 81 80 80 79 78 78 79 79 80 80 79 77 79 78 77 76 76 74 73 72 74 74 75 76 77 78 78 79 78 79 77 78 78 80 80 82 81 81 84 81 80 81 81 81 80 79 80 79 80 80 78 75 74
81 80 80 80 79 81 80 80 79 79 79 82 79 80 79 79 79 79 80 79 79 77 76 75 74 74 74 73 73 74 74 74 76 77 78 77 77 76 76 76 76 78 79 79 80 79 81 83 79 79 80 79 79 79 79 80 78 80 81 80 75 75
80 80 80 80 79 80 79 79 79 79 79 79 79 79 79 78 79 78 79 79 78 76 75 75 75 74 73 74 74 74 75 76 76 76 77 75 77 76 75 75 76 76 77 76 76 77 77 80 83 81 80 78 79 79 77 78 78 78 80 80 78 75
80 79 80 80 80 79 80 79 80 80 79 81 79 78 79 79 78 77 76 76 76 76 75 74 75 75 74 74 72 73 73 74 75 75 77 76 77 75 74 74 75 74 75 76 76 77 79 78 79 81 82 80 79 78 78 77 76 78 79 79 78 73
80 79 80 80 79 79 79 80 80 79 79 79 78 77 76 72 71 73 75 74 75 76 76 75 73 75 74 73 72 72 73 74 74 75 77 76 76 74 75 77 75 76 76 75 76 76 77 77 77 78 80 79 78 77 78 76 77 76 77 77 79 76
79 79 80 79 79 77 74 74 73 73 75 77 75 74 73 72 72 74 74 75 75 76 74 73 73 73 74 72 72 72 73 75 75 76 77 78 78 76 75 75 75 77 75 76 76 76 79 77 77 77 77 77 75 76 75 73 71 68 71 75 77 75
79 79 77 74 71 69 70 70 70 71 73 75 74 70 69 71 72 72 74 74 73 75 73 73 74 73 72 72 72 74 74 74 76 77 77 76 75 75 75 75 74 74 74 74 73 74 75 75 76 76 75 74 73 73 73 72 73 69 70 71 73 75
74 69 69 68 68 68 69 69 69 71 74 75 74 72 72 72 71 71 72 72 73 73 73 73 73 74 71 71 73 75 75 75 76 76 76 74 74 74 74 74 74 74 73 73 74 74 75 74 73 74 74 73 73 74 72 72 72 70 69 69 70 70
68 68 68 68 68 69 69 69 69 73 73 74 72 73 72 72 72 71 71 71 73 73 72 73 72 72 72 74 76 74 75 77 77 76 76 75 76 75 74 74 74 74 72 74 74 74 72 72 72 72 73 72 73 72 73 73 72 71 71 69 70 71
68 68 67 69 69 69 70 71 72 72 74 73 72 70 71 71 71 69 70 70 70 72 71 71 71 72 75 74 74 76 75 78 77 76 75 75 74 76 75 75 74 74 74 72 74 74 72 72 73 72 73 72 72 73 72 73 72 72 74 71 70 70
69 69 69 70 69 68 68 70 70 70 71 71 71 70 70 70 69 70 70 69 70 70 71 70 72 76 75 75 77 75 76 76 76 75 74 73 73 74 74 74 73 74 74 73 72 72 72 73 74 74 73 73 73 72 72 72 72 72 71 71 70 69
69 68 69 69 69 68 69 69 69 68 68 69 70 70 70 69 70 70 70 70 70 70 71 78 78 78 76 77 74 74 75 76 76 75 73 72 72 72 72 72 72 72 74 74 73 73 73 73 73 73 73 72 73 73 73 73 73 72 71 72 72 72
69 69 69 67 67 67 68 67 68 69 69 70 71 70 69 69 69 69 70 70 71 74 78 76 75 76 77 76 75 75 74 75 74 73 72 72 71 71 71 71 71 72 72 73 74 74 73 72 71 71 71 72 72 73 73 73 72 72 72 71 71 71
69 70 68 67 66 67 66 66 67 68 68 69 69 70 70 71 70 69 71 72 74 74 76 77 77 76 75 76 75 74 74 74 75 73 73 72 73 72 72 71 71 72 71 70 71 73 73 72 69 68 70 70 71 72 73 72 71 71 71 71 71 70
68 68 69 67 67 68 67 67 66 67 67 69 68 66 67 67 70 74 74 76 73 73 75 76 76 76 75 75 74 73 74 73 73 73 73 73 73 73 72 71 71 69 72 70 69 72 72 70 67 66 65 67 68 70 72 71 71 71 71 72 72 71
68 68 68 69 68 67 68 69 69 68 67 67 69 69 70 70 73 73 73 74 76 77 77 76 77 76 75 74 74 73 73 73 73 73 72 71 72 71 71 71 70 68 67 70 70 72 72 71 66 68 68 65 63 64 68 67 70 70 72 71 71 71
67 68 69 68 68 69 69 69 70 69 68 67 66 68 70 73 73 74 74 76 76 76 76 76 77 77 75 74 73 73 73 73 73 72 71 71 71 70 71 70 70 70 69 66 68 69 72 72 70 67 62 63 63 63 61 64 66 69 72 71 71 71
67 68 68 69 68 68 69 67 68 68 68 67 67 67 67 68 72 73 74 73 74 75 75 75 75 76 75 73 73 72 72 72 72 72 72 71 70 70 71 71 70 69 69 66 65 68 71 72 71 70 66 63 62 62 61 63 65 66 70 70 70 71
66 67 67 68 69 68 66 66 65 64 62 63 64 64 65 68 70 71 71 72 73 75 74 73 74 74 73 72 71 72 71 72 71 71 71 69 69 68 69 70 70 69 68 69 66 66 66 69 70 71 70 65 63 60 60 63 62 59 69 70 71 72
66 67 68 68 69 67 66 66 66 65 65 63 64 67 71 72 71 72 72 71 71 72 73 72 71 72 72 72 71 71 70 70 70 69 70 69 67 67 68 68 69 68 68 68 67 64 64 65 68 69 70 69 68 68 66 62 59 62 59 65 68 69
67 67 68 68 66 66 66 66 65 65 66 65 67 69 71 71 72 71 70 70 70 70 71 71 70 70 70 70 70 70 69 68 68 68 69 67 66 67 67 68 68 68 67 67 66 65 64 66 64 65 67 67 67 68 68 67 66 62 59 57 61 68
68 69 69 69 66 67 68 66 67 66 67 70 71 70 71 72 70 70 69 69 69 70 69 69 69 69 69 69 69 68 68 68 67 67 68 67 66 67 66 66 66 66 65 65 65 66 65 65 65 64 65 65 65 65 65 66 66 66 61 59 59 61
69 70 71 71 71 69 71 71 71 71 70 70 70 70 70 69 68 68 68 68 68 68 68 67 67 67 67 68 67 67 67 66 66 66 66 66 66 65 65 65 65 65 65 64 65 65 64 65 65 65 65 64 62 62 62 62 63 63 63 63 58 59
69 70 70 70 71 70 71 72 70 70 70 69 69 69 67 67 67 67 67 68 67 67 66 65 65 65 65 66 65 66 65 66 66 66 66 65 65 65 64 65 66 65 65 64 63 63 64 64 63 63 62 62 61 61 60 59 60 62 61 60 59 60
69 69 69 70 69 69 70 70 70 69 68 68 68 67 66 66 67 67 68 67 67 66 64 64 64 63 63 64 64 65 65 65 65 64 64 65 65 64 65 66 65 63 63 63 63 62 63 61 62 61 61 61 61 62 62 61 62 62 61 60 59 59
67 68 68 68 68 68 68 68 68 68 67 68 68 68 67 67 67 66 66 66 65 63 63 62 62 61 62 63 64 64 64 63 63 64 64 64 64 64 64 64 64 63 62 61 62 62 61 61 61 60 60 62 62 62 62 63 63 62 62 62 60 57
67 67 67 67 67 66 66 67 67 67 67 67 66 66 66 66 66 65 65 64 64 63 61 60 60 61 63 64 64 64 64 63 64 64 64 63 64 64 64 63 63 62 62 61 62 62 62 62 61 62 62 60 60 62 63 63 63 62 60 59 58 57
66 66 66 66 66 65 65 65 66 67 66 66 65 65 64 64 63 63 63 62 62 62 61 60 61 62 64 64 64 63 63 62 63 62 63 62 63 63 63 63 63 61 61 61 61 62 61 61 61 60 60 60 60 61 62 62 62 60 61 60 59 58
66 65 65 65 64 63 64 64 65 64 65 65 65 65 64 63 63 63 62 62 61 61 61 62 63 63 63 63 63 63 63 62 63 62 62 63 62 62 62 61 61 61 60 63 61 61 60 60 60 60 60 60 60 60 61 60 60 60 61 60 60 60
65 64 64 63 63 63 63 63 63 63 63 63 63 63 62 62 62 62 62 61 61 61 62 62 63 64 63 63 63 62 62 62 62 62 62 62 62 62 62 61 60 60 59 61 61 60 60 60 59 59 59 59 58 59 59 59 59 59 59 59 59 60

ECMWFFLT2_sfc_temp_111.txt.gz
Temp
73 73 72 72 72 73 75 75 75 75 76 76 76 75 75 76 75 76 75 75 74 72 71 71 72 71 75 72 74 74 74 74 74 74 74 74 74 74 75 75 75 74 74 75 74 74 73 73 74 73 74 74 74 70 68 69 71 72 73 71 71 70
73 72 73 73 73 74 74 74 73 74 74 74 75 75 74 74 76 72 75 74 72 73 71 71 71 75 71 72 73 74 74 74 74 74 74 74 74 74 75 75 75 75 75 74 74 69 70 73 74 74 74 74 71 68 69 70 71 73 73 71 70 72
73 73 73 73 73 73 73 73 73 73 74 75 75 74 73 74 71 72 72 72 72 73 72 72 72 74 72 74 72 74 74 74 74 74 74 74 74 74 74 74 75 75 75 74 70 68 69 69 69 74 75 72 69 69 70 72 72 72 73 72 71 74
74 74 73 72 73 72 73 73 72 72 72 72 72 73 72 73 73 72 73 72 72 73 74 72 77 79 78 73 72 75 74 74 74 74 74 73 74 74 74 74 74 75 73 71 68 68 71 71 70 69 69 69 68 69 71 72 73 73 73 75 73 74
75 74 73 72 72 72 72 73 72 72 72 71 72 72 72 73 73 73 73 72 73 73 73 72 72 73 71 70 69 69 69 69 69 69 73 68 67 71 70 69 69 70 67 67 69 70 71 72 72 71 70 70 71 72 73 74 74 73 73 73 72 74
76 74 73 72 72 73 73 72 72 72 72 72 72 72 73 73 73 74 73 73 74 73 72 72 71 70 71 70 69 69 69 69 69 70 71 69 69 68 67 69 70 70 68 68 69 71 72 72 72 71 71 71 72 72 73 74 74 73 73 71 72 74
75 74 74 74 73 73 72 73 73 73 73 72 73 72 72 72 73 73 73 74 73 71 70 69 70 70 70 71 70 70 70 70 71 70 71 70 70 70 69 68 68 69 69 69 72 73 73 75 74 74 73 74 73 74 73 75 76 73 71 70 72 74
76 75 74 74 73 72 71 74 74 76 74 74 74 73 73 72 73 72 73 73 74 71 69 69 70 69 69 69 68 69 69 69 70 71 73 71 71 71 69 70 71 71 73 74 74 74 73 75 73 73 74 74 75 74 74 73 74 73 72 70 71 74
76 74 73 74 73 72 71 74 74 73 72 76 73 71 72 73 72 72 73 72 73 70 69 70 70 70 68 68 68 69 69 69 70 70 71 70 71 70 70 70 70 71 71 72 72 71 73 75 72 72 73 74 73 73 72 73 72 75 73 70 70 72
76 75 74 74 73 73 73 73 74 73 74 74 70 72 72 71 71 71 70 72 72 70 71 70 70 69 69 69 68 69 70 70 70 70 71 71 70 70 70 69 69 70 72 70 71 73 72 73 75 73 71 71 71 73 72 73 71 71 72 72 70 70
75 75 74 72 71 73 73 72 72 72 72 72 71 71 70 70 70 70 71 71 72 72 71 71 70 69 69 68 67 68 69 69 69 70 71 71 70 70 69 70 69 69 70 70 71 71 72 73 73 74 73 72 72 72 71 71 69 69 71 71 71 69
74 73 72 72 72 71 70 70 71 71 71 71 71 70 69 69 70 70 71 71 71 71 71 70 69 70 69 68 67 67 68 68 70 70 70 70 70 70 70 71 71 71 70 70 71 71 72 71 71 72 73 71 71 71 69 68 68 67 68 70 70 70
72 70 69 69 69 69 69 69 69 70 70 71 69 69 69 69 70 70 71 70 70 71 70 70 70 69 70 68 68 68 68 69 71 71 71 71 72 70 70 70 70 70 70 71 70 71 74 71 69 71 72 72 70 70 69 68 67 67 67 68 69 69
69 69 69 68 68 68 68 68 69 70 71 70 69 68 69 69 69 69 70 70 70 70 69 69 70 69 69 68 68 68 68 69 70 71 70 71 69 68 69 70 69 70 72 70 69 69 69 70 69 70 71 70 69 69 69 69 67 68 67 68 68 68
68 67 67 67 67 67 67 68 68 69 70 69 69 69 69 69 69 69 69 69 69 70 70 70 70 70 68 68 68 68 69 70 71 71 70 70 70 70 69 69 68 69 69 68 69 70 70 69 68 70 70 70 70 69 68 68 68 67 67 67 67 67
67 67 66 67 66 67 67 67 67 69 68 69 68 68 68 68 68 68 68 68 69 70 70 70 70 69 68 69 69 69 69 71 72 70 71 70 70 70 70 70 69 69 67 68 68 69 68 68 68 68 69 69 69 69 69 68 68 68 68 67 67 67
66 66 66 66 67 67 68 68 68 67 67 68 68 68 68 68 68 68 67 68 68 69 69 69 68 68 68 69 69 68 68 70 71 70 70 69 69 69 69 70 69 70 68 68 68 68 68 68 68 69 69 68 69 69 68 69 69 68 69 67 66 66
67 67 66 66 66 66 67 68 67 67 68 68 68 68 68 67 68 68 68 67 68 68 69 68 67 68 67 68 68 68 68 70 71 71 69 69 68 68 69 68 68 69 70 69 68 68 67 68 69 69 68 68 68 68 67 68 69 69 68 68 67 67
67 67 67 66 66 66 67 66 66 66 66 67 67 67 67 67 68 68 68 68 68 68 68 68 68 68 67 67 66 68 69 70 71 69 69 68 68 68 68 68 67 67 69 69 68 68 68 68 68 68 68 68 68 69 69 68 69 68 68 68 68 69
66 66 66 65 65 65 65 65 65 65 65 66 67 67 67 67 67 67 69 69 68 68 68 68 68 68 67 67 67 67 68 68 69 68 67 66 65 66 66 66 67 67 67 68 69 69 68 68 66 66 66 67 67 68 68 68 68 67 66 67 68 68
67 67 65 65 65 64 63 64 65 65 64 65 66 67 67 67 67 68 68 68 68 67 67 67 68 69 68 68 66 67 69 69 68 68 67 67 67 67 67 66 66 65 66 65 66 68 68 67 65 62 63 65 66 67 68 68 66 66 68 68 67 67
67 66 65 65 65 65 65 64 64 64 65 65 65 65 65 66 66 67 67 67 67 67 67 67 67 68 71 69 69 68 68 68 68 68 69 69 69 69 67 67 66 64 66 64 64 67 68 67 62 61 60 61 60 64 65 66 66 66 67 67 67 68
66 65 65 66 65 65 65 66 65 65 65 65 66 67 67 67 67 66 65 66 67 67 70 70 70 70 70 69 68 67 67 67 67 68 67 66 66 66 66 66 65 64 62 64 64 67 66 66 62 63 62 58 57 58 60 62 65 67 67 67 66 67
65 66 65 66 66 66 67 67 67 66 66 65 64 66 65 66 66 65 66 69 70 71 71 70 70 70 69 68 67 67 67 68 68 67 65 64 64 64 65 64 64 64 63 61 62 63 65 65 64 63 58 59 57 57 55 58 61 64 65 67 67 66
65 65 65 66 66 66 66 66 66 65 65 65 65 64 64 64 65 67 69 68 69 70 69 68 68 68 68 67 67 67 67 67 66 66 65 63 63 63 63 63 64 63 62 60 60 60 63 65 65 67 62 59 57 58 58 61 62 60 65 65 65 67
65 65 65 65 66 66 65 64 63 62 61 62 61 61 62 63 64 66 66 68 68 68 68 67 67 67 67 67 66 66 66 65 63 64 64 62 62 62 62 63 63 62 61 61 59 59 59 63 64 66 66 64 63 58 57 60 61 56 65 63 64 66
64 65 65 65 66 65 64 64 63 63 63 62 61 62 64 66 67 67 67 66 66 66 66 65 65 65 65 65 64 64 64 63 63 62 64 62 61 61 62 62 63 61 61 61 60 58 58 59 61 63 64 64 64 64 63 59 56 59 56 61 62 63
65 65 65 65 65 65 64 63 63 63 63 63 63 64 67 68 68 67 66 65 64 64 64 64 63 64 64 64 64 62 62 62 62 63 63 60 60 60 61 62 62 61 61 61 59 57 57 59 58 58 61 60 60 61 61 60 60 57 56 54 56 61
65 65 65 65 65 65 65 64 64 64 63 64 66 66 67 67 67 67 65 64 63 62 62 62 62 62 62 62 62 61 61 61 61 61 62 61 60 60 60 59 59 59 59 59 59 59 58 57 58 58 59 57 57 57 57 58 58 58 55 53 53 55
64 65 65 65 66 65 65 65 64 64 64 64 65 65 65 64 64 65 63 62 61 60 60 60 60 61 60 61 60 61 60 60 59 60 61 59 60 59 59 59 59 59 58 57 58 58 58 58 58 58 58 56 55 55 55 56 56 56 55 56 53 55
65 66 66 66 66 66 66 66 65 65 65 64 64 64 63 64 64 62 61 60 59 59 59 59 59 59 60 60 60 61 60 60 60 60 60 59 58 58 58 58 59 58 58 57 57 57 58 57 57 56 56 55 55 54 54 54 55 56 56 54 53 53
64 64 65 65 65 65 65 65 65 65 64 64 64 64 63 63 64 64 63 60 59 58 58 58 58 57 57 58 59 58 59 58 59 58 58 58 59 59 59 58 58 57 57 57 57 58 57 56 56 55 55 56 55 56 56 56 57 57 55 53 53 52
62 63 63 64 63 63 64 64 64 64 63 64 63 64 64 62 63 62 62 60 58 56 56 57 56 56 56 57 58 57 57 56 56 58 58 58 58 58 57 57 57 56 56 56 56 56 55 55 55 54 54 55 55 56 56 58 57 56 55 55 53 50
61 62 62 62 62 62 62 63 63 63 63 63 62 62 62 61 61 61 61 59 58 57 57 56 56 55 56 58 57 57 57 57 57 57 57 57 57 57 57 57 56 55 56 56 57 56 55 55 55 54 54 53 54 54 55 55 55 55 53 52 51 52
60 60 60 60 61 60 60 62 63 64 63 63 62 61 61 61 60 60 60 59 58 58 56 57 55 57 59 57 57 57 57 56 56 56 56 56 57 57 57 56 57 56 56 56 56 56 55 55 55 54 54 53 55 55 55 55 54 54 55 53 52 52
60 59 60 60 59 59 59 61 62 62 62 62 62 61 60 60 60 60 60 59 58 57 57 55 55 57 57 56 55 56 56 56 56 56 56 56 56 56 55 55 54 55 55 58 55 54 54 54 54 54 53 54 54 54 55 54 55 54 54 53 52 52
59 59 59 59 58 58 58 59 60 61 61 61 60 59 59 59 60 60 60 59 59 58 57 56 58 56 55 55 55 55 55 55 55 55 55 55 55 55 55 54 54 53 53 54 54 54 53 54 54 54 54 54 53 53 53 53 53 53 53 52 52 51

ECMWFFLT2_sfc_temp_114.txt.gz
Temp
72 71 70 71 72 72 75 75 75 76 76 76 75 75 75 75 75 75 75 75 74 70 69 70 70 69 74 70 73 73 73 73 73 73 74 73 74 74 74 74 74 74 74 74 73 74 73 73 73 73 73 73 74 70 66 66 69 68 69 68 69 66
72 71 70 71 72 73 74 74 72 73 73 74 75 75 74 73 76 70 75 73 69 70 69 68 68 74 70 70 71 74 74 73 73 73 73 73 73 73 74 74 74 74 74 74 74 67 68 70 72 73 74 74 71 67 66 67 68 68 69 68 68 68
70 69 70 70 72 72 72 71 71 72 73 74 74 74 72 73 69 69 70 70 70 69 69 69 69 72 70 73 70 74 74 73 73 73 73 73 73 73 73 74 74 74 74 74 68 65 65 66 67 72 72 70 68 67 67 67 68 67 69 68 68 71
70 70 70 70 71 72 71 71 70 71 71 71 71 72 70 70 70 69 71 69 70 70 70 69 74 76 76 70 69 74 74 74 74 73 74 71 72 73 74 74 73 74 71 68 66 65 67 67 68 68 68 67 68 68 68 68 68 67 69 72 69 72
70 70 70 70 71 71 71 70 70 70 70 70 70 70 70 69 70 69 70 70 70 70 70 69 70 70 69 68 67 66 67 66 66 65 71 65 65 67 68 66 66 67 65 65 65 66 67 67 69 69 69 69 69 69 69 70 69 68 69 70 70 73
71 70 70 69 70 71 71 69 69 70 70 70 70 69 69 70 69 70 70 70 71 70 69 68 68 68 67 67 67 67 66 66 66 67 68 66 66 65 64 65 66 67 66 65 65 66 66 68 68 69 69 69 70 69 69 69 70 69 70 69 70 73
71 70 70 70 70 70 69 70 70 70 69 69 69 69 69 69 70 70 70 71 70 68 67 66 67 67 67 68 68 67 67 67 67 67 68 67 67 67 66 66 65 66 65 66 68 68 68 69 69 71 70 71 71 71 70 70 69 70 69 68 70 74
71 71 70 71 71 69 69 70 70 72 71 71 70 70 69 70 71 71 71 70 71 68 67 67 67 67 67 67 67 67 68 67 68 68 69 69 68 67 68 67 67 67 68 69 69 70 69 70 68 67 69 70 70 70 70 70 70 69 68 68 69 73
71 72 71 71 71 70 69 70 70 70 70 73 70 70 70 70 70 70 70 70 70 68 67 68 67 67 66 66 66 66 67 67 67 67 68 68 68 67 67 67 67 67 67 68 69 69 69 70 68 67 68 68 68 68 68 69 68 69 68 67 68 70
71 72 72 71 70 69 69 69 70 70 69 73 69 70 69 68 68 69 68 70 70 69 68 68 68 67 66 66 66 67 67 67 67 67 67 68 67 67 67 66 67 68 68 67 68 70 70 70 71 69 68 67 68 68 66 67 67 68 70 68 67 69
72 73 71 71 70 70 70 70 70 70 70 69 68 69 68 68 68 69 69 69 70 71 69 68 67 66 66 66 66 66 67 67 67 68 68 69 67 68 67 67 68 68 67 67 68 68 69 69 69 70 69 68 69 69 68 66 66 66 68 67 67 67
71 72 70 69 69 69 69 69 69 69 68 68 69 67 68 68 68 68 69 69 69 69 69 67 67 67 66 66 66 66 66 67 67 67 67 67 68 67 68 68 68 69 68 67 67 68 69 68 68 69 69 68 67 68 68 68 69 67 67 66 66 67
70 70 69 69 69 68 68 69 68 68 68 69 68 68 68 68 68 69 68 68 68 68 68 67 67 66 68 65 66 65 66 66 68 69 68 68 68 67 67 67 67 68 68 67 67 68 70 68 67 68 68 68 67 67 67 68 68 67 67 67 66 66
69 69 68 68 68 68 68 68 68 68 68 67 67 67 68 67 68 68 68 68 68 68 67 67 67 67 66 66 65 65 66 67 68 68 67 68 68 67 67 67 67 67 69 67 67 67 66 67 67 67 67 67 67 68 67 67 66 66 66 67 66 65
69 68 68 67 67 67 67 68 67 67 67 68 68 67 67 67 67 67 67 67 68 68 67 68 67 66 65 66 66 66 66 66 68 67 67 68 68 68 67 67 67 67 67 67 66 67 67 67 66 67 67 67 67 68 67 67 67 66 66 66 66 66
68 67 67 67 67 66 66 66 67 68 67 67 67 67 66 66 66 67 67 66 67 69 67 67 67 66 66 66 66 65 65 67 68 68 68 68 68 67 67 67 66 66 66 66 66 67 66 66 66 66 67 66 66 66 66 66 67 67 67 66 66 66
67 66 66 66 66 66 66 66 66 66 66 66 67 66 67 66 67 67 66 66 66 68 67 66 66 65 66 65 66 65 66 66 68 68 67 66 66 66 66 67 66 67 66 64 65 65 66 66 66 66 66 66 66 67 66 66 67 67 67 66 66 66
66 67 66 67 67 66 66 66 66 66 68 67 66 66 66 66 66 66 66 66 67 67 67 66 66 66 65 66 65 66 66 67 68 67 66 65 65 65 66 66 65 66 66 65 64 65 65 65 66 66 66 66 66 66 66 66 66 68 66 66 66 66
66 66 66 66 66 66 66 65 66 66 66 66 66 66 65 66 65 66 66 66 67 66 68 66 66 67 65 65 64 66 67 67 67 66 65 65 65 66 66 65 64 65 65 65 64 65 64 64 65 65 65 65 65 65 65 65 66 65 65 66 66 68
66 66 65 65 66 65 65 65 65 65 65 65 65 66 65 65 65 66 67 67 66 65 66 66 66 66 65 66 65 65 67 67 66 65 65 65 65 65 64 64 64 64 64 65 66 65 64 63 64 62 63 64 65 64 64 64 64 64 65 66 66 66
66 66 65 65 65 65 64 64 64 64 65 65 65 65 65 66 66 66 66 66 66 65 65 66 67 66 66 67 65 66 66 66 66 65 64 64 64 64 65 64 63 63 63 62 63 64 64 62 62 61 61 62 62 64 63 63 65 65 65 65 65 65
65 65 65 65 65 65 64 64 64 64 64 64 64 64 63 64 65 65 66 66 65 64 65 66 67 67 67 66 65 65 64 64 64 64 64 64 64 65 64 63 63 61 62 61 61 63 63 62 59 57 58 59 59 62 61 61 64 65 64 64 64 65
65 65 64 65 65 64 64 65 64 64 64 64 65 65 65 65 65 65 65 66 66 66 66 66 67 68 66 65 64 64 63 64 63 64 62 61 62 61 61 61 61 60 59 61 61 63 62 62 57 59 57 55 53 57 58 59 61 64 64 64 63 65
65 64 65 66 66 65 65 65 65 65 64 64 64 65 65 65 65 65 64 65 66 66 66 65 66 66 65 64 64 63 63 63 63 63 61 61 60 60 61 60 60 60 59 58 58 60 62 62 62 59 55 55 53 55 53 53 57 61 60 63 63 63
65 64 65 66 66 65 65 64 64 64 64 64 64 64 63 63 64 64 64 64 64 65 65 64 64 64 64 63 63 63 63 62 62 61 61 60 59 59 60 60 60 59 58 56 57 57 60 62 62 63 58 56 55 55 53 55 57 55 59 61 61 62
65 64 64 65 66 65 64 63 62 62 61 61 61 62 61 61 61 61 62 63 64 64 64 63 63 63 63 63 61 62 63 63 61 61 60 59 59 59 59 59 59 58 58 58 56 56 56 59 60 61 62 60 60 55 54 56 54 52 58 60 59 61
64 64 64 65 65 65 63 63 62 62 62 62 61 62 63 63 63 63 62 61 61 62 62 62 62 62 62 62 61 61 62 62 62 60 60 59 58 57 58 59 59 58 57 58 57 54 54 55 56 58 59 60 60 61 60 56 52 55 53 54 57 59
65 65 64 64 64 64 63 62 62 62 62 62 63 63 64 64 64 63 61 60 60 60 60 61 61 61 61 62 61 60 60 59 59 60 60 58 57 57 58 58 58 57 57 57 56 54 53 54 53 53 57 55 56 58 58 58 56 53 52 51 53 56
64 64 64 64 64 64 64 63 63 63 62 64 65 65 66 65 63 62 60 59 59 59 59 59 60 60 60 60 61 59 58 58 58 58 59 58 57 57 56 56 56 56 55 55 56 56 54 53 53 52 53 53 54 53 54 55 55 54 51 49 49 50
63 63 64 64 65 64 65 64 63 63 64 64 65 65 64 62 61 61 58 57 57 57 57 58 58 59 59 59 58 58 58 57 57 58 59 57 57 56 56 55 55 55 55 55 55 55 54 53 53 53 53 53 51 51 51 52 51 51 51 51 48 49
63 63 64 64 65 64 65 65 64 64 64 63 63 63 62 60 59 58 56 56 56 56 57 57 57 58 58 58 58 59 57 57 57 58 57 56 56 55 55 54 55 55 55 54 54 54 54 54 53 53 52 51 51 51 49 49 49 51 50 49 48 47
61 62 63 64 64 64 64 64 65 64 64 63 63 62 61 58 57 56 56 55 56 56 56 56 56 56 56 56 57 56 56 56 56 55 55 55 55 55 55 55 54 54 54 54 54 54 52 52 52 52 52 52 52 52 51 50 50 50 48 47 47 45
60 61 62 63 62 62 62 62 63 62 62 62 60 60 60 58 57 56 56 55 56 55 55 55 55 55 55 55 56 55 55 54 54 55 55 55 54 55 54 54 54 54 54 53 52 52 52 51 51 51 51 52 52 51 50 51 51 49 48 48 46 43
59 60 61 61 61 61 60 60 61 60 60 60 59 59 58 58 57 57 56 56 56 55 55 55 55 54 55 55 55 55 54 54 54 55 55 55 54 54 54 53 53 53 53 52 53 52 52 52 52 51 51 50 50 50 50 50 50 49 47 46 44 43
59 60 60 59 60 60 60 60 60 60 60 60 59 58 58 58 57 57 57 57 57 57 56 54 54 54 55 54 54 54 55 53 53 53 54 54 54 53 53 53 53 53 53 52 52 53 52 51 50 50 50 49 50 49 49 49 49 48 48 47 45 44
58 59 59 59 58 58 59 60 60 59 59 59 59 58 58 59 59 59 58 57 57 57 55 53 54 54 54 54 53 53 53 52 53 53 53 53 53 52 52 52 52 52 52 54 52 51 51 51 50 49 49 49 49 48 49 48 49 48 48 47 46 46
56 57 57 57 57 58 58 58 58 59 59 58 57 57 57 58 59 59 59 59 58 56 55 54 55 54 53 53 53 53 52 52 52 52 52 52 52 52 52 51 51 51 51 52 52 51 50 50 49 49 49 48 48 48 47 48 48 48 47 47 46 46

ECMWFFLT2_sfc_temp_117.txt.gz
Temp
69 70 72 73 72 72 74 75 75 75 75 75 75 75 75 75 75 75 74 74 73 68 67 68 67 66 73 69 72 73 73 73 73 73 73 73 73 73 74 74 74 74 74 74 74 72 70 71 72 73 73 73 74 66 64 64 64 66 67 67 69 65
69 70 72 73 72 72 73 74 72 73 73 74 75 75 73 72 75 70 74 71 68 69 67 65 66 72 68 70 70 73 73 73 72 72 72 72 73 73 73 73 73 74 74 73 73 66 66 68 71 72 73 73 68 64 63 63 64 64 67 67 68 66
69 70 72 72 73 72 72 71 71 71 73 74 74 73 71 72 68 67 68 68 69 68 67 68 68 70 69 72 70 73 73 73 72 73 72 73 73 73 73 73 73 73 72 71 65 63 63 63 64 71 71 68 67 67 66 64 64 64 67 66 68 70
69 71 71 72 72 72 72 72 71 71 71 71 70 71 69 68 68 67 68 67 67 68 68 66 72 75 75 68 67 71 74 73 73 72 73 68 70 69 72 71 71 72 68 65 63 63 64 64 65 66 66 66 66 67 68 67 66 65 66 69 68 71
69 70 71 72 71 71 71 71 71 71 71 70 70 69 68 67 67 67 67 68 67 69 67 66 66 67 66 66 65 64 64 64 64 64 69 63 63 64 64 63 63 65 61 62 63 64 64 65 66 66 66 66 68 68 68 69 67 66 66 66 69 72
69 69 70 71 71 72 72 70 70 71 71 70 69 69 67 68 67 67 67 68 69 68 66 67 66 66 66 65 66 65 65 64 64 65 67 65 65 64 64 63 63 64 64 62 63 64 64 66 66 65 66 66 67 67 67 67 67 67 68 66 68 72
69 69 70 71 71 72 70 71 70 70 70 70 69 68 68 67 68 67 67 68 69 66 66 66 66 66 66 65 65 65 65 65 65 66 67 65 65 66 65 65 64 64 63 63 65 65 65 66 64 67 67 67 67 67 67 67 66 66 67 67 69 72
69 69 69 71 70 70 70 69 70 72 71 71 69 68 67 68 69 68 69 68 70 67 66 66 67 66 66 65 66 66 66 66 66 66 67 67 67 65 65 65 65 64 65 66 67 67 66 67 65 64 66 67 67 66 66 66 67 67 68 66 67 71
69 69 70 70 70 69 69 69 69 70 69 72 69 68 68 68 69 68 68 69 70 67 66 67 66 66 65 65 65 66 67 67 67 66 66 66 66 66 65 64 64 65 64 65 66 66 67 67 66 64 65 66 65 65 65 64 64 64 65 64 64 67
69 70 70 69 69 68 68 68 69 69 69 71 68 69 67 67 67 67 67 69 69 67 66 66 66 65 66 66 66 67 66 66 65 65 66 66 66 66 65 65 65 65 66 65 65 67 67 66 67 66 65 65 65 65 64 64 65 64 65 65 64 66
70 71 70 69 68 68 68 68 68 69 69 69 68 68 67 67 66 67 67 67 67 68 67 66 66 66 66 66 65 65 64 65 64 65 65 67 66 66 66 66 66 65 65 64 66 66 66 66 66 67 66 66 66 66 66 64 64 64 66 65 64 64
70 71 70 70 70 68 68 69 69 68 68 68 68 67 67 67 68 66 67 66 67 67 68 66 66 66 66 65 64 63 64 64 65 65 66 66 66 66 66 65 65 65 65 65 65 65 65 65 66 66 65 65 65 66 66 66 66 64 64 64 64 64
70 70 70 70 69 69 69 69 68 68 68 68 67 67 67 67 66 66 66 66 66 67 66 67 66 66 66 63 64 63 64 65 65 65 65 67 66 65 65 65 64 65 65 64 64 65 67 64 64 66 66 65 65 65 66 66 66 65 65 65 64 64
69 70 70 70 69 68 67 67 67 67 68 67 67 67 67 66 67 66 66 66 66 67 66 66 66 65 64 64 63 64 64 65 65 65 65 65 65 65 65 65 65 64 67 64 64 64 64 65 64 64 65 65 65 65 65 65 65 65 64 65 65 63
69 69 70 68 68 67 67 67 67 67 67 67 67 66 66 66 66 66 66 66 66 67 66 66 65 65 64 64 63 64 64 65 66 65 65 65 65 65 65 65 65 65 63 65 63 64 63 63 63 64 65 65 65 65 65 65 65 65 64 65 64 65
67 67 67 67 67 67 67 67 67 68 67 67 66 66 65 65 65 65 66 66 66 67 65 65 65 64 64 64 63 64 64 65 66 65 66 65 66 65 64 65 64 63 63 64 64 64 63 63 63 64 64 64 64 64 64 64 64 64 65 64 64 65
66 66 66 67 67 67 67 67 67 67 66 66 65 65 65 65 65 65 65 65 65 66 64 65 64 64 65 64 64 65 65 65 67 66 65 64 65 65 64 65 64 65 62 61 62 62 63 63 63 64 64 64 64 64 63 64 64 64 65 65 65 64
65 65 66 66 66 66 66 66 66 66 67 66 65 65 65 65 65 65 65 65 65 66 66 64 64 64 65 66 65 65 65 66 66 66 65 64 63 64 64 63 63 64 64 63 61 61 61 62 63 63 63 63 63 62 62 62 64 65 64 65 65 65
65 64 65 66 66 66 66 66 66 66 65 65 65 65 65 65 65 65 65 65 65 65 65 64 65 65 65 65 65 65 65 66 66 65 64 63 63 63 64 63 62 62 62 62 61 61 61 61 62 62 62 62 62 62 62 63 64 63 63 63 65 65
64 65 66 66 65 65 65 65 64 65 64 65 65 65 65 65 65 65 65 65 64 64 65 65 65 65 65 65 64 64 64 64 64 64 63 62 61 61 61 61 62 61 60 62 63 62 61 60 61 58 60 61 60 60 61 62 62 63 63 63 63 63
65 65 65 65 64 64 64 64 64 64 64 64 65 65 65 65 65 65 65 65 65 64 65 65 65 65 64 65 63 63 63 63 63 63 62 61 61 61 62 60 60 60 60 60 60 61 62 59 59 59 58 59 59 61 60 60 61 63 62 62 62 62
65 64 64 64 64 64 63 64 64 64 64 65 64 63 63 63 64 65 65 65 65 64 64 64 65 64 64 63 62 62 62 62 62 61 62 62 62 62 61 60 59 59 60 59 59 60 60 59 57 56 56 57 56 59 58 58 60 62 62 61 61 61
64 64 63 65 64 63 62 64 64 64 64 64 65 64 64 65 65 63 63 63 64 63 64 64 65 65 64 63 62 62 61 61 61 62 62 61 60 59 59 58 58 57 57 59 59 60 59 59 54 56 56 55 51 54 56 57 56 61 61 60 60 60
64 63 63 65 65 64 64 64 65 64 64 64 64 65 65 64 63 62 61 63 63 63 63 63 65 65 64 63 62 61 61 61 61 62 61 60 58 57 57 57 58 58 56 56 55 57 59 58 57 56 54 54 54 54 53 51 54 58 57 59 59 58
64 64 64 65 65 65 65 64 64 64 65 64 64 64 63 62 62 62 62 62 62 63 62 61 62 62 62 61 60 60 60 60 60 60 60 58 57 57 56 56 57 57 56 54 54 54 57 58 57 58 56 55 53 53 53 53 53 52 54 57 57 57
64 64 64 65 65 64 64 63 63 62 62 62 61 61 60 59 59 59 58 60 63 63 62 62 61 61 61 61 59 60 60 59 58 58 58 57 56 56 56 56 56 56 56 55 54 53 53 57 57 57 56 56 56 53 52 53 51 50 57 54 56 57
64 64 64 65 65 64 63 63 63 63 63 62 61 61 61 61 60 59 60 60 60 61 62 61 60 60 59 60 59 58 58 58 58 57 59 57 56 55 56 56 57 56 55 55 55 52 51 51 53 55 55 56 57 57 56 52 48 51 50 53 54 56
64 64 65 65 64 63 63 62 62 63 63 63 62 61 61 61 61 60 60 60 60 60 60 59 58 58 59 59 58 57 57 57 57 57 58 55 55 55 56 57 57 56 56 55 53 52 51 51 50 50 54 53 53 54 53 53 51 48 49 47 49 52
63 63 64 64 64 64 63 63 63 63 62 64 64 62 62 62 60 60 58 59 59 58 57 57 57 57 57 58 59 57 56 56 56 56 57 56 55 55 55 54 54 54 54 53 54 53 52 50 50 49 50 50 50 50 50 50 50 49 47 45 46 46
62 63 64 64 64 63 63 63 63 63 63 63 63 62 61 60 59 59 58 57 57 56 56 56 56 56 57 57 56 57 56 55 55 56 57 55 55 55 54 54 54 53 53 52 52 53 51 51 51 50 50 49 47 47 47 47 47 46 45 46 42 43
62 63 64 64 64 63 63 63 63 64 64 63 62 61 59 58 58 58 57 56 56 55 55 55 55 55 55 55 56 57 55 55 56 56 55 54 54 54 53 53 53 53 52 52 51 51 52 51 50 50 49 48 47 46 44 43 43 44 44 42 41 41
62 63 63 64 63 63 64 64 64 64 63 62 62 60 58 57 57 56 56 55 55 55 54 54 54 54 54 55 55 54 55 55 55 54 54 54 54 54 54 53 53 52 52 51 52 51 50 49 48 48 47 47 47 47 46 44 45 44 43 42 41 39
61 62 63 63 63 63 63 63 63 63 62 62 61 60 58 57 57 56 55 54 54 53 53 53 53 53 53 53 54 53 53 53 53 54 54 54 53 53 53 53 52 51 51 50 50 49 48 47 47 46 46 47 47 46 45 45 45 44 44 44 42 39
60 61 61 61 62 61 61 61 61 60 61 62 60 59 58 57 56 56 55 54 54 54 53 52 52 52 52 53 53 53 53 52 53 54 54 53 53 53 53 52 52 50 50 50 50 48 48 47 47 47 47 46 45 45 45 45 44 44 43 42 40 39
58 59 60 60 60 60 60 60 60 60 60 60 59 58 58 57 56 55 55 55 54 54 53 52 52 52 53 52 52 53 53 52 52 52 52 52 53 52 52 52 52 50 50 49 49 48 47 47 46 46 45 45 46 45 45 45 44 44 44 43 41 40
58 59 59 59 59 59 59 60 60 59 59 60 59 58 58 57 56 56 56 55 54 53 53 53 52 52 51 52 51 51 51 51 51 52 52 52 52 52 51 51 50 50 49 50 48 47 47 47 46 45 45 45 45 44 44 44 45 44 44 43 43 42
58 59 58 57 58 59 59 59 59 59 59 58 58 58 57 57 56 56 57 57 55 54 54 52 52 52 51 51 51 50 50 50 50 51 51 51 51 51 51 50 49 48 48 48 48 46 47 46 45 45 45 44 44 44 44 44 44 44 44 43 43 42

ECMWFFLT2_sfc_temp_123.txt.gz
Temp
77 78 78 78 78 79 78 76 76 76 75 75 75 75 75 75 75 75 76 74 73 76 76 76 76 77 74 76 73 73 73 73 73 73 72 73 73 73 73 73 73 73 73 73 73 72 71 72 72 73 73 74 72 80 81 82 83 83 84 85 83 85
77 77 78 77 78 79 78 78 79 78 78 77 76 76 77 78 77 78 74 75 76 76 75 76 76 75 76 76 75 73 73 73 73 73 72 72 72 72 73 73 73 73 72 73 71 80 80 75 71 73 74 72 80 82 81 81 81 84 84 85 84 83
77 77 77 78 78 78 79 79 79 79 78 77 77 79 79 79 79 78 77 77 76 76 77 77 77 76 76 73 75 73 73 73 73 73 72 71 70 70 72 72 71 73 71 70 80 81 82 83 83 74 74 79 83 82 81 81 81 82 84 84 85 77
76 77 77 78 78 78 78 78 79 78 78 77 78 79 78 78 78 77 76 76 76 77 76 76 75 75 75 77 75 73 71 71 70 71 69 73 70 70 68 69 70 71 75 80 82 83 84 85 84 84 83 83 84 83 83 82 84 83 83 83 85 75
76 76 77 77 77 78 78 78 78 78 78 78 78 78 78 77 76 76 76 77 78 77 77 78 78 78 78 77 77 77 76 77 76 76 72 77 77 78 77 82 81 80 82 82 83 82 82 83 83 83 83 83 83 83 84 83 83 84 84 83 82 74
76 76 77 77 77 78 77 77 76 76 77 78 77 76 77 77 76 76 77 78 77 77 77 78 78 78 78 78 78 79 78 78 78 78 78 79 80 79 81 82 82 82 82 82 81 81 82 81 83 83 84 83 83 83 84 85 85 83 83 83 82 73
75 76 76 77 77 77 76 77 76 77 77 76 76 76 77 77 77 76 76 77 76 77 77 78 78 78 78 79 79 79 79 79 79 80 79 80 80 80 81 81 81 81 81 82 83 83 83 83 81 83 83 84 83 84 83 84 85 84 83 83 81 72
75 75 75 76 76 76 76 76 76 76 77 75 76 76 77 77 76 76 76 77 77 78 78 78 77 78 78 78 77 77 78 79 79 79 79 81 81 81 81 81 81 81 82 82 83 82 83 83 82 81 82 82 83 82 82 83 83 83 83 83 83 76
74 74 75 75 75 75 76 75 76 76 76 76 76 76 76 76 76 77 77 77 78 77 78 78 77 77 78 76 76 77 78 78 79 79 79 80 80 80 80 81 80 81 81 81 82 81 82 83 81 81 82 82 82 81 81 82 82 83 84 83 82 79
73 75 75 74 74 74 74 73 75 75 76 76 75 75 74 76 77 78 77 77 78 77 77 77 77 77 77 76 76 76 77 78 79 79 80 79 80 80 80 80 80 80 82 80 81 80 80 82 83 81 81 81 81 82 81 81 81 82 83 82 81 81
73 73 75 73 74 73 73 73 75 76 77 76 75 75 76 76 78 78 78 77 77 77 76 77 77 76 76 76 76 77 77 78 79 79 79 80 80 79 79 79 79 79 79 80 80 81 81 81 81 83 81 81 80 81 81 80 81 81 82 81 81 79
73 72 74 73 72 73 73 74 75 75 75 76 75 76 77 77 75 77 76 75 75 77 78 76 76 75 76 76 76 76 77 78 78 79 79 79 79 79 79 79 78 78 77 78 79 80 80 80 80 81 82 80 80 80 80 80 80 78 79 79 80 79
74 72 73 73 72 73 73 73 73 73 75 75 75 76 76 75 75 75 74 74 75 76 76 76 75 76 76 76 76 76 77 78 78 78 78 78 78 79 79 78 78 78 79 79 79 79 81 80 80 79 80 79 79 79 79 79 78 78 78 78 77 75
74 71 72 72 72 71 71 72 72 73 74 74 75 74 74 73 74 74 75 74 75 77 77 76 76 75 76 77 76 77 77 77 77 77 77 78 78 78 78 78 78 79 77 78 78 77 78 78 79 80 79 78 78 77 78 78 77 75 76 76 76 75
74 74 72 70 70 71 71 72 72 72 74 74 74 73 72 73 73 74 76 76 76 76 77 77 77 75 75 76 77 77 77 77 77 77 78 77 78 78 78 76 77 78 77 77 78 77 77 77 77 78 76 77 77 77 76 75 75 74 74 74 74 74
73 73 72 71 71 72 72 72 72 72 73 73 72 72 72 73 73 73 74 75 76 76 76 76 77 76 75 77 78 77 77 77 76 78 77 76 77 77 76 75 75 75 75 76 77 76 76 76 76 75 75 75 75 75 75 75 74 73 73 74 73 72
73 73 73 72 72 72 72 73 73 72 72 72 71 70 70 71 72 72 73 74 75 74 75 75 76 75 75 75 75 76 76 75 76 77 75 75 76 76 75 74 73 73 74 74 75 75 75 75 75 74 74 74 74 74 73 73 73 73 73 72 71 71
73 73 72 72 72 72 72 72 71 70 69 69 69 68 70 72 71 71 71 71 73 73 73 74 75 75 73 74 74 74 74 74 75 75 74 74 73 74 74 74 72 72 73 73 73 72 73 74 74 74 74 73 73 73 73 72 72 72 72 71 70 70
72 71 71 72 72 71 71 70 69 68 68 67 67 69 71 71 70 70 71 72 73 72 72 74 74 74 73 72 73 73 74 74 75 74 73 73 73 73 72 72 72 71 72 72 72 71 71 71 73 73 73 71 71 71 72 72 72 71 70 69 69 69
70 71 71 71 71 70 69 68 67 67 66 67 68 68 69 69 69 70 71 71 71 71 72 73 73 73 72 72 73 73 72 73 74 74 73 72 72 72 71 71 71 71 71 72 72 72 71 71 73 72 70 70 71 71 70 70 70 70 70 69 69 69
69 71 71 70 70 69 68 67 68 67 67 67 68 69 69 69 70 70 71 70 69 69 71 72 73 73 72 71 71 71 71 72 74 73 71 70 70 70 70 71 70 70 70 69 68 70 69 69 71 71 71 70 69 70 69 69 68 68 68 69 69 68
69 70 70 70 70 70 70 70 69 68 68 67 67 66 66 68 69 70 69 69 69 70 71 71 72 73 71 70 69 70 70 71 71 71 70 70 70 69 69 70 70 69 69 68 65 66 66 69 69 67 68 67 68 69 69 68 67 67 67 67 67 65
69 70 70 71 71 70 70 71 70 68 67 66 69 69 68 68 68 66 66 67 68 69 70 71 71 70 69 69 69 68 68 70 70 71 70 69 69 68 68 68 69 69 68 67 67 66 65 66 67 66 66 67 65 65 65 67 67 66 66 65 65 64
68 70 70 70 70 71 71 70 68 67 66 66 65 66 65 65 66 66 64 66 68 69 69 69 69 69 68 68 68 68 69 69 68 68 69 69 68 67 67 67 68 68 69 67 66 64 65 64 64 65 65 65 64 65 65 65 65 65 65 63 63 62
68 69 70 69 69 69 67 66 66 65 65 64 64 63 63 62 63 64 65 65 66 67 67 67 68 68 68 67 67 67 67 67 67 68 69 68 66 65 66 67 66 67 66 66 64 63 63 63 63 64 64 65 64 65 62 63 64 65 67 64 63 62
68 68 69 68 68 67 66 65 64 62 60 61 60 61 61 60 60 60 61 65 65 66 66 66 67 67 67 66 66 67 68 69 67 67 67 66 66 66 65 65 65 66 64 64 64 63 61 63 62 62 62 62 62 61 61 62 63 62 65 64 63 63
68 68 68 68 67 66 66 67 66 64 63 62 60 60 61 61 60 61 63 63 63 64 65 64 65 66 65 65 65 66 66 67 67 66 66 66 64 64 64 64 64 64 63 63 64 62 61 61 63 61 61 60 60 60 60 60 59 61 60 62 61 60
68 67 67 67 66 68 67 67 66 64 63 62 61 59 60 59 60 61 60 61 61 62 63 64 64 65 65 65 65 64 65 65 65 65 65 64 63 64 63 63 62 62 62 62 62 62 60 61 61 58 60 59 58 59 59 58 58 58 57 57 59 60
67 67 67 67 66 67 68 67 66 65 63 62 61 60 61 60 59 60 60 60 61 61 61 61 62 63 64 64 64 64 65 65 64 64 65 63 62 62 61 61 60 60 60 60 60 60 60 59 59 58 59 57 58 58 57 57 57 59 56 57 58 56
66 67 67 67 67 67 67 66 65 65 62 61 61 60 60 59 58 60 59 59 60 60 61 61 62 64 65 65 64 64 64 63 63 63 63 62 61 60 60 60 59 59 59 58 59 58 57 57 57 57 58 58 58 58 58 57 56 57 57 56 55 56
67 68 68 67 67 67 67 66 65 63 61 60 60 59 58 58 58 59 59 58 59 59 61 62 63 63 63 64 64 64 63 63 63 62 62 62 61 61 60 59 59 58 58 57 57 56 56 56 56 56 56 57 56 56 55 54 54 55 55 54 56 55
66 67 68 66 65 65 65 66 66 63 61 60 60 59 58 57 59 59 58 57 58 59 60 60 61 62 62 63 63 62 62 62 62 62 61 61 60 60 60 59 58 58 57 56 57 56 56 55 55 55 55 56 55 55 55 55 55 55 55 54 55 55
65 67 66 64 63 64 65 66 65 63 61 61 60 60 58 58 60 59 58 57 58 58 60 60 60 60 61 61 62 62 62 61 61 60 60 60 59 59 58 58 57 56 56 56 55 55 55 54 54 55 54 55 56 56 55 55 56 55 55 56 55 54
65 65 64 63 64 64 65 66 65 63 62 62 60 60 60 60 60 60 60 60 60 59 59 58 59 60 61 62 62 62 61 61 61 60 60 59 58 58 58 57 56 56 55 56 56 55 54 54 54 54 56 55 55 55 55 55 55 55 54 54 53 52
65 65 64 64 65 65 65 65 64 62 61 60 59 59 61 61 60 59 60 59 59 58 58 59 60 60 61 61 61 61 61 60 59 59 59 58 58 57 57 57 57 56 56 56 55 55 54 54 53 53 53 55 54 55 55 55 55 55 55 54 53 52
64 64 64 65 64 65 64 65 63 61 59 59 60 60 60 60 60 59 58 58 57 57 58 58 58 59 60 61 60 59 59 59 59 59 58 58 58 57 57 56 56 56 55 56 54 54 54 54 53 53 53 54 54 54 54 55 55 55 55 55 54 54
63 63 64 66 65 63 63 63 61 61 59 59 60 60 59 58 58 58 58 57 57 57 57 58 57 59 59 60 60 59 59 58 58 58 58 58 57 57 57 57 56 55 55 56 55 54 54 54 54 54 54 53 54 54 54 55 55 55 55 55 55 55